Observation data for Panhandle on 07/11/2018      Previous  Date       Current Mesonet Observations  Soil Data  Daily Summary Page  Observations in Plain Language
KPA1 110501Z 14009KT 22/18 A3017 RMK A01 T02200177  RH  076%=      5-min Rain = 0
KPA1 110502Z 14009KT 22/18 A3017 RMK A01 T02200177  RH  076%=      5-min Rain = 0
KPA1 110503Z 14010KT 22/18 A3017 RMK A01 T02190176  RH  077%=      5-min Rain = 0
KPA1 110504Z 14009KT 22/18 A3017 RMK A01 T02190177  RH  077%=      5-min Rain = 0
KPA1 110505Z 14008KT 22/18 A3017 RMK A01 T02190177  RH  077%=      5-min Rain = 0
KPA1 110506Z 15008KT 22/18 A3017 RMK A01 T02190177  RH  077%=      5-min Rain = 0
KPA1 110507Z 14008KT 22/18 A3017 RMK A01 T02180177  RH  077%=      5-min Rain = 0
KPA1 110508Z 15009KT 22/18 A3017 RMK A01 T02180177  RH  077%=      5-min Rain = 0
KPA1 110509Z 14009KT 22/18 A3017 RMK A01 T02170177  RH  078%=      5-min Rain = 0
KPA1 110510Z 14008KT 22/18 A3017 RMK A01 T02170177  RH  078%=      5-min Rain = 0
KPA1 110511Z 14008KT 22/18 A3017 RMK A01 T02170177  RH  078%=      5-min Rain = 0
KPA1 110512Z 15008KT 22/18 A3017 RMK A01 T02170177  RH  078%=      5-min Rain = 0
KPA1 110513Z 15008KT 22/18 A3017 RMK A01 T02170177  RH  078%=      5-min Rain = 0
KPA1 110514Z 14008KT 22/18 A3017 RMK A01 T02160177  RH  078%=      5-min Rain = 0
KPA1 110515Z 15008KT 22/18 A3017 RMK A01 T02170177  RH  078%=      5-min Rain = 0
KPA1 110516Z 15008KT 22/18 A3017 RMK A01 T02170177  RH  078%=      5-min Rain = 0
KPA1 110517Z 15008KT 22/18 A3017 RMK A01 T02160177  RH  078%=      5-min Rain = 0
KPA1 110518Z 15008KT 22/18 A3017 RMK A01 T02160177  RH  079%=      5-min Rain = 0
KPA1 110519Z 16008KT 22/18 A3017 RMK A01 T02150177  RH  079%=      5-min Rain = 0
KPA1 110520Z 16008KT 22/18 A3017 RMK A01 T02150177  RH  079%=      5-min Rain = 0
KPA1 110521Z 16008KT 21/18 A3017 RMK A01 T02140177  RH  079%=      5-min Rain = 0
KPA1 110522Z 16007KT 21/18 A3017 RMK A01 T02140177  RH  080%=      5-min Rain = 0
KPA1 110523Z 16008KT 21/18 A3017 RMK A01 T02140177  RH  080%=      5-min Rain = 0
KPA1 110524Z 16008KT 21/18 A3017 RMK A01 T02130177  RH  080%=      5-min Rain = 0
KPA1 110525Z 16008KT 21/18 A3017 RMK A01 T02140177  RH  080%=      5-min Rain = 0
KPA1 110526Z 16008KT 21/18 A3017 RMK A01 T02140177  RH  080%=      5-min Rain = 0
KPA1 110527Z 16007KT 21/18 A3017 RMK A01 T02130176  RH  080%=      5-min Rain = 0
KPA1 110528Z 16008KT 21/18 A3017 RMK A01 T02130177  RH  080%=      5-min Rain = 0
KPA1 110529Z 16007KT 21/18 A3017 RMK A01 T02120176  RH  080%=      5-min Rain = 0
KPA1 110530Z 16007KT 21/18 A3017 RMK A01 T02120176  RH  080%=      5-min Rain = 0
KPA1 110531Z 17007KT 21/18 A3017 RMK A01 T02120176  RH  080%=      5-min Rain = 0
KPA1 110532Z 16007KT 21/18 A3017 RMK A01 T02120176  RH  080%=      5-min Rain = 0
KPA1 110533Z 16006KT 21/18 A3017 RMK A01 T02110175  RH  080%=      5-min Rain = 0
KPA1 110534Z 17006KT 21/18 A3017 RMK A01 T02110175  RH  080%=      5-min Rain = 0
KPA1 110535Z 17007KT 21/18 A3017 RMK A01 T02110175  RH  080%=      5-min Rain = 0
KPA1 110536Z 17006KT 21/18 A3017 RMK A01 T02110175  RH  080%=      5-min Rain = 0
KPA1 110537Z 17007KT 21/18 A3017 RMK A01 T02100175  RH  080%=      5-min Rain = 0
KPA1 110538Z 17006KT 21/18 A3017 RMK A01 T02100175  RH  080%=      5-min Rain = 0
KPA1 110539Z 17007KT 21/18 A3017 RMK A01 T02100175  RH  080%=      5-min Rain = 0
KPA1 110540Z 17006KT 21/18 A3017 RMK A01 T02100175  RH  080%=      5-min Rain = 0
KPA1 110541Z 17006KT 21/18 A3017 RMK A01 T02100175  RH  080%=      5-min Rain = 0
KPA1 110542Z 17006KT 21/18 A3017 RMK A01 T02100175  RH  080%=      5-min Rain = 0
KPA1 110543Z 17006KT 21/18 A3017 RMK A01 T02100175  RH  080%=      5-min Rain = 0
KPA1 110544Z 17005KT 21/18 A3017 RMK A01 T02100175  RH  080%=      5-min Rain = 0
KPA1 110545Z 16005KT 21/17 A3017 RMK A01 T02100174  RH  080%=      5-min Rain = 0
KPA1 110546Z 16005KT 21/17 A3017 RMK A01 T02100174  RH  080%=      5-min Rain = 0
KPA1 110547Z 16005KT 21/17 A3017 RMK A01 T02100174  RH  080%=      5-min Rain = 0
KPA1 110548Z 16004KT 21/17 A3017 RMK A01 T02100174  RH  080%=      5-min Rain = 0
KPA1 110549Z 16004KT 21/17 A3017 RMK A01 T02090174  RH  080%=      5-min Rain = 0
KPA1 110550Z 17004KT 21/17 A3017 RMK A01 T02090174  RH  080%=      5-min Rain = 0
KPA1 110551Z 17004KT 21/17 A3017 RMK A01 T02080173  RH  080%=      5-min Rain = 0
KPA1 110552Z 17004KT 21/17 A3017 RMK A01 T02090174  RH  080%=      5-min Rain = 0
KPA1 110553Z 17004KT 21/17 A3017 RMK A01 T02080173  RH  080%=      5-min Rain = 0
KPA1 110554Z 17004KT 21/17 A3017 RMK A01 T02080173  RH  080%=      5-min Rain = 0
KPA1 110555Z 17004KT 21/17 A3017 RMK A01 T02070172  RH  080%=      5-min Rain = 0
KPA1 110556Z 16004KT 21/17 A3017 RMK A01 T02070172  RH  080%=      5-min Rain = 0
KPA1 110557Z 16004KT 21/17 A3017 RMK A01 T02080172  RH  080%=      5-min Rain = 0
KPA1 110558Z 16004KT 21/17 A3017 RMK A01 T02070172  RH  080%=      5-min Rain = 0
KPA1 110559Z 16004KT 21/17 A3017 RMK A01 T02070172  RH  080%=      5-min Rain = 0
KPA1 110600Z 16004KT 21/17 A3017 RMK A01 T02080172  RH  080%=      5-min Rain = 0
KPA1 110601Z 16004KT 21/17 A3017 RMK A01 T02070172  RH  080%=      5-min Rain = 0
KPA1 110602Z 16004KT 21/17 A3017 RMK A01 T02070173  RH  080%=      5-min Rain = 0
KPA1 110603Z 16004KT 21/17 A3017 RMK A01 T02080173  RH  081%=      5-min Rain = 0
KPA1 110604Z 16005KT 21/17 A3017 RMK A01 T02070173  RH  081%=      5-min Rain = 0
KPA1 110605Z 16005KT 21/17 A3017 RMK A01 T02070173  RH  081%=      5-min Rain = 0
KPA1 110606Z 16005KT 21/17 A3017 RMK A01 T02070173  RH  081%=      5-min Rain = 0
KPA1 110607Z 16005KT 21/17 A3017 RMK A01 T02080173  RH  081%=      5-min Rain = 0
KPA1 110608Z 16005KT 21/17 A3017 RMK A01 T02070172  RH  080%=      5-min Rain = 0
KPA1 110609Z 16005KT 21/17 A3017 RMK A01 T02080173  RH  080%=      5-min Rain = 0
KPA1 110610Z 16005KT 21/17 A3017 RMK A01 T02080173  RH  080%=      5-min Rain = 0
KPA1 110611Z 16005KT 21/17 A3017 RMK A01 T02080173  RH  080%=      5-min Rain = 0
KPA1 110612Z 16005KT 21/17 A3017 RMK A01 T02080173  RH  080%=      5-min Rain = 0
KPA1 110613Z 16005KT 21/17 A3017 RMK A01 T02080173  RH  080%=      5-min Rain = 0
KPA1 110614Z 16005KT 21/17 A3017 RMK A01 T02080173  RH  080%=      5-min Rain = 0
KPA1 110615Z 16005KT 21/17 A3017 RMK A01 T02080173  RH  080%=      5-min Rain = 0
KPA1 110616Z 16005KT 21/17 A3017 RMK A01 T02080173  RH  080%=      5-min Rain = 0
KPA1 110617Z 16005KT 21/17 A3017 RMK A01 T02080173  RH  081%=      5-min Rain = 0
KPA1 110618Z 17005KT 21/17 A3017 RMK A01 T02070172  RH  081%=      5-min Rain = 0
KPA1 110619Z 17005KT 21/17 A3017 RMK A01 T02070172  RH  081%=      5-min Rain = 0
KPA1 110620Z 17005KT 21/17 A3017 RMK A01 T02070172  RH  081%=      5-min Rain = 0
KPA1 110621Z 17005KT 21/17 A3017 RMK A01 T02060172  RH  081%=      5-min Rain = 0
KPA1 110622Z 17005KT 21/17 A3017 RMK A01 T02060172  RH  081%=      5-min Rain = 0
KPA1 110623Z 17005KT 21/17 A3017 RMK A01 T02050171  RH  081%=      5-min Rain = 0
KPA1 110624Z 17005KT 21/17 A3017 RMK A01 T02050171  RH  081%=      5-min Rain = 0
KPA1 110625Z 17004KT 20/17 A3017 RMK A01 T02040171  RH  081%=      5-min Rain = 0
KPA1 110626Z 17004KT 20/17 A3017 RMK A01 T02040171  RH  081%=      5-min Rain = 0
KPA1 110627Z 17004KT 20/17 A3017 RMK A01 T02030170  RH  081%=      5-min Rain = 0
KPA1 110628Z 17004KT 20/17 A3017 RMK A01 T02030170  RH  081%=      5-min Rain = 0
KPA1 110629Z 17004KT 20/17 A3017 RMK A01 T02030170  RH  081%=      5-min Rain = 0
KPA1 110630Z 17004KT 20/17 A3017 RMK A01 T02030170  RH  081%=      5-min Rain = 0
KPA1 110631Z 17003KT 20/17 A3017 RMK A01 T02030170  RH  081%=      5-min Rain = 0
KPA1 110632Z 17003KT 20/17 A3017 RMK A01 T02030170  RH  081%=      5-min Rain = 0
KPA1 110633Z 17003KT 20/17 A3017 RMK A01 T02030169  RH  081%=      5-min Rain = 0
KPA1 110634Z 18003KT 20/17 A3017 RMK A01 T02020169  RH  081%=      5-min Rain = 0
KPA1 110635Z 18003KT 20/17 A3017 RMK A01 T02020169  RH  081%=      5-min Rain = 0
KPA1 110636Z 18003KT 20/17 A3017 RMK A01 T02020169  RH  081%=      5-min Rain = 0
KPA1 110637Z 18003KT 20/17 A3017 RMK A01 T02020169  RH  081%=      5-min Rain = 0
KPA1 110638Z 18003KT 20/17 A3017 RMK A01 T02020169  RH  081%=      5-min Rain = 0
KPA1 110639Z 18003KT 20/17 A3017 RMK A01 T02010169  RH  081%=      5-min Rain = 0
KPA1 110640Z 17003KT 20/17 A3017 RMK A01 T02010169  RH  082%=      5-min Rain = 0
KPA1 110641Z 17003KT 20/17 A3017 RMK A01 T02010169  RH  082%=      5-min Rain = 0
KPA1 110642Z 17004KT 20/17 A3017 RMK A01 T02010168  RH  082%=      5-min Rain = 0
KPA1 110643Z 17004KT 20/17 A3017 RMK A01 T02010168  RH  081%=      5-min Rain = 0
KPA1 110644Z 17004KT 20/17 A3017 RMK A01 T02010168  RH  081%=      5-min Rain = 0
KPA1 110645Z 17004KT 20/17 A3017 RMK A01 T02000167  RH  081%=      5-min Rain = 0
KPA1 110646Z 17004KT 20/17 A3017 RMK A01 T02000167  RH  081%=      5-min Rain = 0
KPA1 110647Z 16004KT 20/17 A3017 RMK A01 T01990167  RH  081%=      5-min Rain = 0
KPA1 110648Z 16004KT 20/17 A3017 RMK A01 T01990167  RH  081%=      5-min Rain = 0
KPA1 110649Z 16004KT 20/17 A3017 RMK A01 T01990166  RH  081%=      5-min Rain = 0
KPA1 110650Z 16004KT 20/17 A3016 RMK A01 T01980166  RH  081%=      5-min Rain = 0
KPA1 110651Z 16004KT 20/17 A3016 RMK A01 T01980166  RH  082%=      5-min Rain = 0
KPA1 110652Z 17004KT 20/17 A3016 RMK A01 T01980166  RH  082%=      5-min Rain = 0
KPA1 110653Z 17004KT 20/17 A3016 RMK A01 T01970166  RH  082%=      5-min Rain = 0
KPA1 110654Z 17004KT 20/17 A3016 RMK A01 T01970166  RH  082%=      5-min Rain = 0
KPA1 110655Z 17004KT 20/17 A3016 RMK A01 T01970166  RH  082%=      5-min Rain = 0
KPA1 110656Z 17004KT 20/17 A3016 RMK A01 T01970166  RH  082%=      5-min Rain = 0
KPA1 110657Z 17004KT 20/17 A3016 RMK A01 T01960165  RH  082%=      5-min Rain = 0
KPA1 110658Z 17004KT 20/17 A3016 RMK A01 T01960165  RH  082%=      5-min Rain = 0
KPA1 110659Z 17004KT 20/17 A3016 RMK A01 T01960165  RH  083%=      5-min Rain = 0
KPA1 110700Z 17004KT 20/17 A3016 RMK A01 T01950165  RH  083%=      5-min Rain = 0
KPA1 110701Z 17004KT 20/16 A3016 RMK A01 T01950164  RH  083%=      5-min Rain = 0
KPA1 110702Z 17005KT 20/16 A3016 RMK A01 T01950164  RH  083%=      5-min Rain = 0
KPA1 110703Z 17005KT 19/16 A3016 RMK A01 T01940164  RH  083%=      5-min Rain = 0
KPA1 110704Z 17005KT 19/16 A3016 RMK A01 T01940164  RH  083%=      5-min Rain = 0
KPA1 110705Z 17005KT 19/16 A3016 RMK A01 T01930164  RH  083%=      5-min Rain = 0
KPA1 110706Z 17005KT 19/16 A3016 RMK A01 T01930163  RH  083%=      5-min Rain = 0
KPA1 110707Z 17005KT 19/16 A3016 RMK A01 T01930163  RH  083%=      5-min Rain = 0
KPA1 110708Z 17005KT 19/16 A3016 RMK A01 T01920163  RH  083%=      5-min Rain = 0
KPA1 110709Z 17005KT 19/16 A3016 RMK A01 T01920163  RH  083%=      5-min Rain = 0
KPA1 110710Z 17005KT 19/16 A3016 RMK A01 T01920163  RH  083%=      5-min Rain = 0
KPA1 110711Z 16005KT 19/16 A3017 RMK A01 T01920163  RH  083%=      5-min Rain = 0
KPA1 110712Z 16006KT 19/16 A3017 RMK A01 T01920163  RH  083%=      5-min Rain = 0
KPA1 110713Z 15006KT 19/16 A3017 RMK A01 T01920163  RH  084%=      5-min Rain = 0
KPA1 110714Z 15006KT 19/16 A3017 RMK A01 T01920164  RH  084%=      5-min Rain = 0
KPA1 110715Z 15007KT 19/17 A3017 RMK A01 T01920165  RH  084%=      5-min Rain = 0
KPA1 110716Z 14008KT 19/17 A3017 RMK A01 T01940167  RH  084%=      5-min Rain = 0
KPA1 110717Z 14008KT 20/17 A3017 RMK A01 T01960167  RH  083%=      5-min Rain = 0
KPA1 110718Z 13009KT 20/17 A3017 RMK A01 T01990168  RH  082%=      5-min Rain = 0
KPA1 110719Z 12009KT 20/17 A3017 RMK A01 T02020167  RH  081%=      5-min Rain = 0
KPA1 110720Z 12010KT 20/17 A3017 RMK A01 T02040167  RH  080%=      5-min Rain = 0
KPA1 110721Z 13010KT 20/17 A3017 RMK A01 T02040168  RH  080%=      5-min Rain = 0
KPA1 110722Z 13009KT 20/17 A3017 RMK A01 T02040168  RH  080%=      5-min Rain = 0
KPA1 110723Z 13011KT 20/17 A3017 RMK A01 T02040168  RH  080%=      5-min Rain = 0
KPA1 110724Z 13010KT 21/17 A3017 RMK A01 T02060169  RH  079%=      5-min Rain = 0
KPA1 110725Z 14009KT 21/17 A3017 RMK A01 T02070169  RH  079%=      5-min Rain = 0
KPA1 110726Z 14010KT 21/17 A3017 RMK A01 T02070169  RH  079%=      5-min Rain = 0
KPA1 110727Z 15009KT 21/17 A3017 RMK A01 T02070169  RH  079%=      5-min Rain = 0
KPA1 110728Z 15008KT 21/17 A3017 RMK A01 T02070169  RH  079%=      5-min Rain = 0
KPA1 110729Z 14008KT 21/17 A3017 RMK A01 T02070169  RH  079%=      5-min Rain = 0
KPA1 110730Z 14008KT 21/17 A3017 RMK A01 T02060169  RH  079%=      5-min Rain = 0
KPA1 110731Z 13008KT 21/17 A3017 RMK A01 T02050169  RH  080%=      5-min Rain = 0
KPA1 110732Z 13007KT 21/17 A3017 RMK A01 T02050169  RH  080%=      5-min Rain = 0
KPA1 110733Z 13007KT 21/17 A3017 RMK A01 T02050169  RH  080%=      5-min Rain = 0
KPA1 110734Z 13008KT 21/17 A3017 RMK A01 T02050169  RH  080%=      5-min Rain = 0
KPA1 110735Z 13008KT 21/17 A3017 RMK A01 T02050169  RH  080%=      5-min Rain = 0
KPA1 110736Z 13008KT 21/17 A3017 RMK A01 T02050169  RH  080%=      5-min Rain = 0
KPA1 110737Z 13008KT 21/17 A3017 RMK A01 T02050170  RH  080%=      5-min Rain = 0
KPA1 110738Z 13009KT 21/17 A3017 RMK A01 T02050170  RH  080%=      5-min Rain = 0
KPA1 110739Z 14009KT 21/17 A3017 RMK A01 T02050170  RH  080%=      5-min Rain = 0
KPA1 110740Z 14008KT 21/17 A3017 RMK A01 T02050171  RH  080%=      5-min Rain = 0
KPA1 110741Z 14008KT 21/17 A3017 RMK A01 T02050170  RH  080%=      5-min Rain = 0
KPA1 110742Z 14008KT 21/17 A3017 RMK A01 T02050170  RH  081%=      5-min Rain = 0
KPA1 110743Z 14008KT 21/17 A3017 RMK A01 T02050171  RH  081%=      5-min Rain = 0
KPA1 110744Z 14008KT 20/17 A3017 RMK A01 T02040170  RH  081%=      5-min Rain = 0
KPA1 110745Z 14007KT 20/17 A3017 RMK A01 T02040170  RH  081%=      5-min Rain = 0
KPA1 110746Z 14008KT 20/17 A3017 RMK A01 T02030171  RH  081%=      5-min Rain = 0
KPA1 110747Z 14007KT 20/17 A3017 RMK A01 T02030171  RH  082%=      5-min Rain = 0
KPA1 110748Z 13007KT 20/17 A3017 RMK A01 T02030170  RH  082%=      5-min Rain = 0
KPA1 110749Z 13007KT 20/17 A3017 RMK A01 T02030171  RH  082%=      5-min Rain = 0
KPA1 110750Z 13007KT 20/17 A3017 RMK A01 T02030171  RH  082%=      5-min Rain = 0
KPA1 110751Z 13006KT 20/17 A3017 RMK A01 T02030171  RH  082%=      5-min Rain = 0
KPA1 110752Z 13006KT 20/17 A3017 RMK A01 T02030171  RH  082%=      5-min Rain = 0
KPA1 110753Z 13006KT 20/17 A3017 RMK A01 T02020171  RH  082%=      5-min Rain = 0
KPA1 110754Z 13006KT 20/17 A3017 RMK A01 T02020172  RH  083%=      5-min Rain = 0
KPA1 110755Z 13006KT 20/17 A3017 RMK A01 T02020171  RH  083%=      5-min Rain = 0
KPA1 110756Z 13006KT 20/17 A3017 RMK A01 T02020172  RH  083%=      5-min Rain = 0
KPA1 110757Z 13006KT 20/17 A3017 RMK A01 T02010172  RH  083%=      5-min Rain = 0
KPA1 110758Z 13007KT 20/17 A3017 RMK A01 T02010172  RH  083%=      5-min Rain = 0
KPA1 110759Z 13007KT 20/17 A3017 RMK A01 T02010172  RH  083%=      5-min Rain = 0
KPA1 110800Z 13006KT 20/17 A3017 RMK A01 T02010172  RH  083%=      5-min Rain = 0
KPA1 110801Z 13007KT 20/17 A3017 RMK A01 T02020172  RH  083%=      5-min Rain = 0
KPA1 110802Z 13007KT 20/17 A3017 RMK A01 T02020172  RH  083%=      5-min Rain = 0
KPA1 110803Z 14007KT 20/17 A3017 RMK A01 T02020172  RH  083%=      5-min Rain = 0
KPA1 110804Z 14006KT 20/17 A3017 RMK A01 T02020172  RH  083%=      5-min Rain = 0
KPA1 110805Z 15007KT 20/17 A3017 RMK A01 T02020172  RH  083%=      5-min Rain = 0
KPA1 110806Z 15007KT 20/17 A3016 RMK A01 T02020172  RH  083%=      5-min Rain = 0
KPA1 110807Z 15006KT 20/17 A3016 RMK A01 T02020172  RH  083%=      5-min Rain = 0
KPA1 110808Z 15007KT 20/17 A3016 RMK A01 T02000172  RH  084%=      5-min Rain = 0
KPA1 110809Z 15006KT 20/17 A3016 RMK A01 T02000172  RH  084%=      5-min Rain = 0
KPA1 110810Z 15006KT 20/17 A3016 RMK A01 T01990172  RH  084%=      5-min Rain = 0
KPA1 110811Z 15006KT 20/17 A3016 RMK A01 T01980172  RH  085%=      5-min Rain = 0
KPA1 110812Z 15006KT 20/17 A3016 RMK A01 T01980172  RH  085%=      5-min Rain = 0
KPA1 110813Z 15006KT 20/17 A3016 RMK A01 T01980172  RH  085%=      5-min Rain = 0
KPA1 110814Z 15006KT 20/17 A3016 RMK A01 T01980172  RH  085%=      5-min Rain = 0
KPA1 110815Z 15006KT 20/17 A3016 RMK A01 T01980172  RH  085%=      5-min Rain = 0
KPA1 110816Z 15007KT 20/17 A3016 RMK A01 T01970172  RH  085%=      5-min Rain = 0
KPA1 110817Z 15007KT 20/17 A3016 RMK A01 T01970172  RH  085%=      5-min Rain = 0
KPA1 110818Z 15007KT 20/17 A3016 RMK A01 T01970172  RH  085%=      5-min Rain = 0
KPA1 110819Z 15007KT 20/17 A3016 RMK A01 T01970172  RH  085%=      5-min Rain = 0
KPA1 110820Z 15007KT 20/17 A3016 RMK A01 T01970172  RH  085%=      5-min Rain = 0
KPA1 110821Z 15007KT 20/17 A3016 RMK A01 T01970171  RH  085%=      5-min Rain = 0
KPA1 110822Z 15007KT 20/17 A3016 RMK A01 T01970172  RH  085%=      5-min Rain = 0
KPA1 110823Z 15007KT 20/17 A3016 RMK A01 T01970171  RH  085%=      5-min Rain = 0
KPA1 110824Z 15007KT 20/17 A3016 RMK A01 T01970171  RH  085%=      5-min Rain = 0
KPA1 110825Z 15007KT 20/17 A3016 RMK A01 T01970172  RH  085%=      5-min Rain = 0
KPA1 110826Z 15006KT 20/17 A3016 RMK A01 T01970172  RH  085%=      5-min Rain = 0
KPA1 110827Z 15006KT 20/17 A3016 RMK A01 T01970171  RH  085%=      5-min Rain = 0
KPA1 110828Z 15006KT 20/17 A3016 RMK A01 T01960171  RH  085%=      5-min Rain = 0
KPA1 110829Z 15007KT 20/17 A3016 RMK A01 T01960171  RH  085%=      5-min Rain = 0
KPA1 110830Z 15006KT 20/17 A3016 RMK A01 T01960171  RH  085%=      5-min Rain = 0
KPA1 110831Z 15006KT 20/17 A3016 RMK A01 T01960171  RH  085%=      5-min Rain = 0
KPA1 110832Z 15006KT 20/17 A3016 RMK A01 T01960171  RH  085%=      5-min Rain = 0
KPA1 110833Z 15006KT 20/17 A3016 RMK A01 T01960170  RH  085%=      5-min Rain = 0
KPA1 110834Z 14006KT 20/17 A3016 RMK A01 T01960170  RH  085%=      5-min Rain = 0
KPA1 110835Z 15006KT 20/17 A3016 RMK A01 T01960170  RH  085%=      5-min Rain = 0
KPA1 110836Z 14007KT 20/17 A3016 RMK A01 T01960170  RH  085%=      5-min Rain = 0
KPA1 110837Z 14005KT 20/17 A3016 RMK A01 T01960170  RH  085%=      5-min Rain = 0
KPA1 110838Z 13007KT 20/17 A3016 RMK A01 T01970170  RH  084%=      5-min Rain = 0
KPA1 110839Z 14007KT 20/17 A3016 RMK A01 T01970170  RH  084%=      5-min Rain = 0
KPA1 110840Z 14006KT 20/17 A3016 RMK A01 T01980170  RH  084%=      5-min Rain = 0
KPA1 110841Z 13005KT 20/17 A3016 RMK A01 T01980170  RH  084%=      5-min Rain = 0
KPA1 110842Z 13007KT 20/17 A3016 RMK A01 T01990170  RH  083%=      5-min Rain = 0
KPA1 110843Z 14006KT 20/17 A3016 RMK A01 T01990170  RH  083%=      5-min Rain = 0
KPA1 110844Z 13006KT 20/17 A3016 RMK A01 T01990170  RH  083%=      5-min Rain = 0
KPA1 110845Z 14006KT 20/17 A3016 RMK A01 T01990170  RH  083%=      5-min Rain = 0
KPA1 110846Z 14006KT 20/17 A3016 RMK A01 T01990170  RH  083%=      5-min Rain = 0
KPA1 110847Z 14006KT 20/17 A3016 RMK A01 T01990169  RH  083%=      5-min Rain = 0
KPA1 110848Z 15005KT 20/17 A3016 RMK A01 T02000170  RH  083%=      5-min Rain = 0
KPA1 110849Z 15006KT 20/17 A3016 RMK A01 T02000170  RH  083%=      5-min Rain = 0
KPA1 110850Z 15005KT 20/17 A3016 RMK A01 T01980169  RH  083%=      5-min Rain = 0
KPA1 110851Z 15005KT 20/17 A3016 RMK A01 T01980170  RH  084%=      5-min Rain = 0
KPA1 110852Z 16005KT 20/17 A3016 RMK A01 T01970170  RH  084%=      5-min Rain = 0
KPA1 110853Z 16005KT 20/17 A3016 RMK A01 T01960170  RH  085%=      5-min Rain = 0
KPA1 110854Z 16005KT 20/17 A3016 RMK A01 T01960170  RH  085%=      5-min Rain = 0
KPA1 110855Z 16005KT 20/17 A3016 RMK A01 T01950170  RH  085%=      5-min Rain = 0
KPA1 110856Z 16005KT 19/17 A3016 RMK A01 T01940170  RH  086%=      5-min Rain = 0
KPA1 110857Z 16005KT 19/17 A3016 RMK A01 T01940170  RH  086%=      5-min Rain = 0
KPA1 110858Z 16005KT 19/17 A3016 RMK A01 T01940170  RH  086%=      5-min Rain = 0
KPA1 110859Z 16005KT 19/17 A3016 RMK A01 T01940170  RH  086%=      5-min Rain = 0
KPA1 110900Z 16005KT 19/17 A3016 RMK A01 T01940170  RH  086%=      5-min Rain = 0
KPA1 110901Z 16004KT 19/17 A3016 RMK A01 T01930170  RH  086%=      5-min Rain = 0
KPA1 110902Z 16004KT 19/17 A3016 RMK A01 T01930170  RH  086%=      5-min Rain = 0
KPA1 110903Z 16004KT 19/17 A3016 RMK A01 T01930170  RH  087%=      5-min Rain = 0
KPA1 110904Z 15004KT 19/17 A3016 RMK A01 T01930170  RH  087%=      5-min Rain = 0
KPA1 110905Z 16004KT 19/17 A3016 RMK A01 T01920170  RH  087%=      5-min Rain = 0
KPA1 110906Z 15004KT 19/17 A3016 RMK A01 T01920170  RH  087%=      5-min Rain = 0
KPA1 110907Z 15004KT 19/17 A3016 RMK A01 T01920170  RH  087%=      5-min Rain = 0
KPA1 110908Z 16004KT 19/17 A3016 RMK A01 T01920170  RH  087%=      5-min Rain = 0
KPA1 110909Z 16004KT 19/17 A3016 RMK A01 T01910170  RH  087%=      5-min Rain = 0
KPA1 110910Z 16004KT 19/17 A3016 RMK A01 T01910170  RH  087%=      5-min Rain = 0
KPA1 110911Z 16004KT 19/17 A3016 RMK A01 T01900169  RH  088%=      5-min Rain = 0
KPA1 110912Z 17004KT 19/17 A3016 RMK A01 T01910170  RH  088%=      5-min Rain = 0
KPA1 110913Z 17005KT 19/17 A3015 RMK A01 T01900169  RH  088%=      5-min Rain = 0
KPA1 110914Z 17005KT 19/17 A3015 RMK A01 T01900169  RH  088%=      5-min Rain = 0
KPA1 110915Z 17005KT 19/17 A3015 RMK A01 T01890169  RH  088%=      5-min Rain = 0
KPA1 110916Z 17005KT 19/17 A3015 RMK A01 T01890169  RH  088%=      5-min Rain = 0
KPA1 110917Z 17005KT 19/17 A3015 RMK A01 T01890169  RH  088%=      5-min Rain = 0
KPA1 110918Z 17005KT 19/17 A3015 RMK A01 T01880168  RH  088%=      5-min Rain = 0
KPA1 110919Z 17005KT 19/17 A3015 RMK A01 T01880168  RH  088%=      5-min Rain = 0
KPA1 110920Z 18005KT 19/17 A3015 RMK A01 T01880168  RH  088%=      5-min Rain = 0
KPA1 110921Z 18005KT 19/17 A3015 RMK A01 T01870167  RH  088%=      5-min Rain = 0
KPA1 110922Z 17005KT 19/17 A3015 RMK A01 T01870167  RH  088%=      5-min Rain = 0
KPA1 110923Z 18004KT 19/17 A3015 RMK A01 T01870166  RH  088%=      5-min Rain = 0
KPA1 110924Z 17004KT 19/17 A3015 RMK A01 T01860166  RH  088%=      5-min Rain = 0
KPA1 110925Z 17004KT 19/17 A3015 RMK A01 T01860167  RH  088%=      5-min Rain = 0
KPA1 110926Z 17004KT 19/17 A3015 RMK A01 T01860166  RH  088%=      5-min Rain = 0
KPA1 110927Z 17004KT 19/17 A3015 RMK A01 T01850166  RH  088%=      5-min Rain = 0
KPA1 110928Z 17004KT 19/17 A3015 RMK A01 T01850165  RH  088%=      5-min Rain = 0
KPA1 110929Z 17004KT 19/17 A3015 RMK A01 T01850166  RH  088%=      5-min Rain = 0
KPA1 110930Z 17004KT 19/17 A3015 RMK A01 T01850165  RH  088%=      5-min Rain = 0
KPA1 110931Z 17004KT 19/17 A3015 RMK A01 T01850165  RH  089%=      5-min Rain = 0
KPA1 110932Z 17004KT 19/17 A3015 RMK A01 T01850166  RH  089%=      5-min Rain = 0
KPA1 110933Z 17005KT 18/17 A3015 RMK A01 T01840165  RH  089%=      5-min Rain = 0
KPA1 110934Z 17005KT 18/17 A3015 RMK A01 T01840165  RH  089%=      5-min Rain = 0
KPA1 110935Z 17005KT 18/17 A3015 RMK A01 T01840165  RH  089%=      5-min Rain = 0
KPA1 110936Z 17005KT 18/17 A3015 RMK A01 T01830165  RH  089%=      5-min Rain = 0
KPA1 110937Z 17005KT 18/17 A3015 RMK A01 T01830165  RH  089%=      5-min Rain = 0
KPA1 110938Z 18005KT 18/17 A3015 RMK A01 T01830165  RH  089%=      5-min Rain = 0
KPA1 110939Z 18005KT 18/17 A3015 RMK A01 T01830165  RH  089%=      5-min Rain = 0
KPA1 110940Z 18005KT 18/16 A3015 RMK A01 T01830164  RH  089%=      5-min Rain = 0
KPA1 110941Z 18004KT 18/16 A3015 RMK A01 T01830164  RH  089%=      5-min Rain = 0
KPA1 110942Z 18004KT 18/16 A3015 RMK A01 T01820164  RH  089%=      5-min Rain = 0
KPA1 110943Z 18005KT 18/16 A3015 RMK A01 T01820163  RH  089%=      5-min Rain = 0
KPA1 110944Z 18005KT 18/16 A3015 RMK A01 T01810163  RH  089%=      5-min Rain = 0
KPA1 110945Z 18005KT 18/16 A3015 RMK A01 T01800162  RH  089%=      5-min Rain = 0
KPA1 110946Z 18005KT 18/16 A3015 RMK A01 T01800162  RH  090%=      5-min Rain = 0
KPA1 110947Z 18005KT 18/16 A3015 RMK A01 T01790162  RH  090%=      5-min Rain = 0
KPA1 110948Z 18005KT 18/16 A3015 RMK A01 T01790163  RH  090%=      5-min Rain = 0
KPA1 110949Z 18005KT 18/16 A3015 RMK A01 T01790163  RH  090%=      5-min Rain = 0
KPA1 110950Z 18005KT 18/16 A3015 RMK A01 T01790163  RH  090%=      5-min Rain = 0
KPA1 110951Z 18005KT 18/16 A3015 RMK A01 T01790163  RH  090%=      5-min Rain = 0
KPA1 110952Z 18005KT 18/16 A3015 RMK A01 T01790162  RH  090%=      5-min Rain = 0
KPA1 110953Z 18004KT 18/16 A3015 RMK A01 T01790162  RH  090%=      5-min Rain = 0
KPA1 110954Z 18004KT 18/16 A3015 RMK A01 T01790163  RH  090%=      5-min Rain = 0
KPA1 110955Z 18004KT 18/16 A3015 RMK A01 T01800163  RH  090%=      5-min Rain = 0
KPA1 110956Z 18004KT 18/16 A3015 RMK A01 T01790162  RH  090%=      5-min Rain = 0
KPA1 110957Z 18004KT 18/16 A3015 RMK A01 T01790162  RH  090%=      5-min Rain = 0
KPA1 110958Z 18004KT 18/16 A3015 RMK A01 T01790162  RH  090%=      5-min Rain = 0
KPA1 110959Z 18004KT 18/16 A3015 RMK A01 T01790163  RH  090%=      5-min Rain = 0
KPA1 111000Z 18004KT 18/16 A3015 RMK A01 T01790163  RH  090%=      5-min Rain = 0
KPA1 111001Z 18004KT 18/16 A3015 RMK A01 T01790163  RH  090%=      5-min Rain = 0
KPA1 111002Z 18004KT 18/16 A3015 RMK A01 T01790163  RH  090%=      5-min Rain = 0
KPA1 111003Z 18004KT 18/16 A3015 RMK A01 T01800163  RH  090%=      5-min Rain = 0
KPA1 111004Z 18004KT 18/16 A3015 RMK A01 T01800163  RH  090%=      5-min Rain = 0
KPA1 111005Z 18004KT 18/16 A3015 RMK A01 T01790163  RH  090%=      5-min Rain = 0
KPA1 111006Z 18004KT 18/16 A3015 RMK A01 T01790163  RH  090%=      5-min Rain = 0
KPA1 111007Z 17003KT 18/16 A3015 RMK A01 T01800163  RH  090%=      5-min Rain = 0
KPA1 111008Z 17004KT 18/16 A3015 RMK A01 T01790163  RH  090%=      5-min Rain = 0
KPA1 111009Z 17003KT 18/16 A3015 RMK A01 T01790163  RH  090%=      5-min Rain = 0
KPA1 111010Z 17003KT 18/16 A3015 RMK A01 T01790162  RH  090%=      5-min Rain = 0
KPA1 111011Z 17003KT 18/16 A3015 RMK A01 T01790162  RH  090%=      5-min Rain = 0
KPA1 111012Z 18003KT 18/16 A3015 RMK A01 T01790162  RH  090%=      5-min Rain = 0
KPA1 111013Z 18003KT 18/16 A3015 RMK A01 T01780161  RH  090%=      5-min Rain = 0
KPA1 111014Z 18003KT 18/16 A3015 RMK A01 T01790162  RH  090%=      5-min Rain = 0
KPA1 111015Z 18002KT 18/16 A3015 RMK A01 T01780161  RH  090%=      5-min Rain = 0
KPA1 111016Z 19002KT 18/16 A3015 RMK A01 T01780161  RH  090%=      5-min Rain = 0
KPA1 111017Z 20002KT 18/16 A3015 RMK A01 T01780161  RH  090%=      5-min Rain = 0
KPA1 111018Z 21002KT 18/16 A3015 RMK A01 T01770162  RH  090%=      5-min Rain = 0
KPA1 111019Z 21002KT 18/16 A3015 RMK A01 T01780163  RH  091%=      5-min Rain = 0
KPA1 111020Z 20002KT 18/16 A3015 RMK A01 T01780163  RH  091%=      5-min Rain = 0
KPA1 111021Z 20002KT 18/16 A3015 RMK A01 T01780164  RH  091%=      5-min Rain = 0
KPA1 111022Z 20003KT 18/16 A3015 RMK A01 T01780164  RH  091%=      5-min Rain = 0
KPA1 111023Z 20003KT 18/16 A3015 RMK A01 T01780164  RH  091%=      5-min Rain = 0
KPA1 111024Z 20003KT 18/16 A3015 RMK A01 T01780164  RH  091%=      5-min Rain = 0
KPA1 111025Z 20004KT 18/16 A3015 RMK A01 T01780164  RH  091%=      5-min Rain = 0
KPA1 111026Z 20004KT 18/16 A3015 RMK A01 T01780163  RH  091%=      5-min Rain = 0
KPA1 111027Z 20004KT 18/16 A3015 RMK A01 T01780163  RH  091%=      5-min Rain = 0
KPA1 111028Z 20004KT 18/16 A3015 RMK A01 T01780163  RH  091%=      5-min Rain = 0
KPA1 111029Z 20004KT 18/16 A3015 RMK A01 T01770162  RH  091%=      5-min Rain = 0
KPA1 111030Z 20004KT 18/16 A3015 RMK A01 T01760161  RH  091%=      5-min Rain = 0
KPA1 111031Z 20004KT 18/16 A3015 RMK A01 T01760161  RH  091%=      5-min Rain = 0
KPA1 111032Z 20004KT 18/16 A3015 RMK A01 T01750160  RH  091%=      5-min Rain = 0
KPA1 111033Z 20004KT 17/16 A3015 RMK A01 T01740160  RH  091%=      5-min Rain = 0
KPA1 111034Z 20004KT 17/16 A3015 RMK A01 T01740159  RH  091%=      5-min Rain = 0
KPA1 111035Z 20004KT 17/16 A3015 RMK A01 T01730158  RH  091%=      5-min Rain = 0
KPA1 111036Z 20004KT 17/16 A3015 RMK A01 T01720158  RH  091%=      5-min Rain = 0
KPA1 111037Z 20004KT 17/16 A3015 RMK A01 T01710157  RH  091%=      5-min Rain = 0
KPA1 111038Z 20004KT 17/16 A3015 RMK A01 T01710157  RH  092%=      5-min Rain = 0
KPA1 111039Z 20004KT 17/16 A3015 RMK A01 T01710157  RH  092%=      5-min Rain = 0
KPA1 111040Z 20004KT 17/16 A3015 RMK A01 T01710158  RH  092%=      5-min Rain = 0
KPA1 111041Z 19004KT 17/16 A3015 RMK A01 T01700157  RH  092%=      5-min Rain = 0
KPA1 111042Z 19005KT 17/16 A3015 RMK A01 T01700157  RH  092%=      5-min Rain = 0
KPA1 111043Z 19005KT 17/16 A3015 RMK A01 T01700157  RH  092%=      5-min Rain = 0
KPA1 111044Z 19005KT 17/16 A3015 RMK A01 T01700157  RH  092%=      5-min Rain = 0
KPA1 111045Z 19005KT 17/16 A3015 RMK A01 T01700158  RH  092%=      5-min Rain = 0
KPA1 111046Z 19005KT 17/16 A3015 RMK A01 T01700157  RH  092%=      5-min Rain = 0
KPA1 111047Z 19005KT 17/16 A3015 RMK A01 T01700157  RH  092%=      5-min Rain = 0
KPA1 111048Z 19005KT 17/16 A3015 RMK A01 T01700157  RH  092%=      5-min Rain = 0
KPA1 111049Z 19005KT 17/16 A3015 RMK A01 T01700157  RH  092%=      5-min Rain = 0
KPA1 111050Z 19005KT 17/16 A3015 RMK A01 T01710158  RH  092%=      5-min Rain = 0
KPA1 111051Z 19005KT 17/16 A3015 RMK A01 T01710158  RH  092%=      5-min Rain = 0
KPA1 111052Z 19005KT 17/16 A3015 RMK A01 T01720159  RH  092%=      5-min Rain = 0
KPA1 111053Z 20005KT 17/16 A3015 RMK A01 T01720158  RH  092%=      5-min Rain = 0
KPA1 111054Z 20005KT 17/16 A3015 RMK A01 T01710158  RH  092%=      5-min Rain = 0
KPA1 111055Z 20005KT 17/16 A3015 RMK A01 T01720158  RH  091%=      5-min Rain = 0
KPA1 111056Z 20006KT 17/16 A3015 RMK A01 T01720157  RH  091%=      5-min Rain = 0
KPA1 111057Z 20006KT 17/16 A3015 RMK A01 T01720158  RH  091%=      5-min Rain = 0
KPA1 111058Z 20005KT 17/16 A3015 RMK A01 T01720158  RH  091%=      5-min Rain = 0
KPA1 111059Z 20006KT 17/16 A3015 RMK A01 T01730158  RH  091%=      5-min Rain = 0
KPA1 111100Z 20006KT 17/16 A3015 RMK A01 T01720158  RH  091%=      5-min Rain = 0
KPA1 111101Z 20006KT 17/16 A3015 RMK A01 T01730158  RH  091%=      5-min Rain = 0
KPA1 111102Z 20005KT 17/16 A3015 RMK A01 T01730159  RH  091%=      5-min Rain = 0
KPA1 111103Z 20005KT 17/16 A3015 RMK A01 T01730159  RH  091%=      5-min Rain = 0
KPA1 111104Z 20005KT 17/16 A3015 RMK A01 T01730159  RH  091%=      5-min Rain = 0
KPA1 111105Z 20005KT 17/16 A3015 RMK A01 T01730159  RH  091%=      5-min Rain = 0
KPA1 111106Z 20005KT 17/16 A3015 RMK A01 T01740159  RH  091%=      5-min Rain = 0
KPA1 111107Z 21005KT 17/16 A3015 RMK A01 T01740159  RH  091%=      5-min Rain = 0
KPA1 111108Z 21004KT 17/16 A3015 RMK A01 T01740159  RH  091%=      5-min Rain = 0
KPA1 111109Z 21004KT 18/16 A3015 RMK A01 T01750159  RH  091%=      5-min Rain = 0
KPA1 111110Z 21004KT 17/16 A3015 RMK A01 T01740159  RH  090%=      5-min Rain = 0
KPA1 111111Z 22004KT 18/16 A3015 RMK A01 T01750159  RH  090%=      5-min Rain = 0
KPA1 111112Z 22004KT 17/16 A3015 RMK A01 T01740158  RH  090%=      5-min Rain = 0
KPA1 111113Z 22004KT 17/16 A3015 RMK A01 T01740158  RH  090%=      5-min Rain = 0
KPA1 111114Z 22004KT 17/16 A3015 RMK A01 T01740158  RH  090%=      5-min Rain = 0
KPA1 111115Z 21004KT 17/16 A3015 RMK A01 T01740158  RH  090%=      5-min Rain = 0
KPA1 111116Z 21004KT 17/16 A3014 RMK A01 T01740157  RH  090%=      5-min Rain = 0
KPA1 111117Z 21005KT 17/16 A3014 RMK A01 T01740157  RH  089%=      5-min Rain = 0
KPA1 111118Z 21005KT 17/16 A3014 RMK A01 T01740156  RH  089%=      5-min Rain = 0
KPA1 111119Z 21004KT 17/16 A3014 RMK A01 T01740156  RH  089%=      5-min Rain = 0
KPA1 111120Z 21004KT 17/16 A3014 RMK A01 T01730156  RH  089%=      5-min Rain = 0
KPA1 111121Z 21004KT 17/16 A3014 RMK A01 T01730156  RH  089%=      5-min Rain = 0
KPA1 111122Z 21004KT 17/16 A3014 RMK A01 T01730155  RH  089%=      5-min Rain = 0
KPA1 111123Z 21004KT 17/16 A3015 RMK A01 T01730155  RH  089%=      5-min Rain = 0
KPA1 111124Z 21003KT 17/16 A3015 RMK A01 T01730155  RH  090%=      5-min Rain = 0
KPA1 111125Z 20003KT 17/16 A3015 RMK A01 T01730156  RH  090%=      5-min Rain = 0
KPA1 111126Z 20003KT 17/16 A3015 RMK A01 T01720156  RH  090%=      5-min Rain = 0
KPA1 111127Z 20003KT 17/16 A3015 RMK A01 T01730156  RH  090%=      5-min Rain = 0
KPA1 111128Z 20003KT 17/16 A3015 RMK A01 T01730156  RH  090%=      5-min Rain = 0
KPA1 111129Z 19003KT 17/16 A3015 RMK A01 T01730156  RH  090%=      5-min Rain = 0
KPA1 111130Z 19003KT 17/16 A3015 RMK A01 T01730156  RH  090%=      5-min Rain = 0
KPA1 111131Z 19003KT 17/16 A3015 RMK A01 T01730156  RH  090%=      5-min Rain = 0
KPA1 111132Z 19003KT 17/16 A3015 RMK A01 T01730156  RH  090%=      5-min Rain = 0
KPA1 111133Z 19003KT 17/16 A3015 RMK A01 T01730156  RH  090%=      5-min Rain = 0
KPA1 111134Z 19003KT 17/16 A3015 RMK A01 T01730156  RH  090%=      5-min Rain = 0
KPA1 111135Z 19003KT 17/16 A3015 RMK A01 T01730156  RH  090%=      5-min Rain = 0
KPA1 111136Z 18003KT 17/16 A3015 RMK A01 T01730155  RH  089%=      5-min Rain = 0
KPA1 111137Z 17003KT 17/16 A3015 RMK A01 T01730155  RH  089%=      5-min Rain = 0
KPA1 111138Z 17004KT 17/15 A3015 RMK A01 T01730154  RH  089%=      5-min Rain = 0
KPA1 111139Z 17004KT 17/15 A3015 RMK A01 T01730154  RH  089%=      5-min Rain = 0
KPA1 111140Z 16004KT 17/15 A3015 RMK A01 T01720154  RH  089%=      5-min Rain = 0
KPA1 111141Z 16004KT 17/15 A3015 RMK A01 T01720154  RH  089%=      5-min Rain = 0
KPA1 111142Z 16004KT 17/15 A3015 RMK A01 T01730154  RH  089%=      5-min Rain = 0
KPA1 111143Z 16004KT 17/16 A3015 RMK A01 T01730155  RH  089%=      5-min Rain = 0
KPA1 111144Z 16003KT 17/16 A3015 RMK A01 T01730155  RH  089%=      5-min Rain = 0
KPA1 111145Z 15003KT 17/16 A3015 RMK A01 T01730155  RH  089%=      5-min Rain = 0
KPA1 111146Z 15003KT 17/16 A3015 RMK A01 T01730155  RH  090%=      5-min Rain = 0
KPA1 111147Z 15003KT 17/16 A3015 RMK A01 T01730156  RH  090%=      5-min Rain = 0
KPA1 111148Z 15004KT 17/16 A3015 RMK A01 T01730156  RH  089%=      5-min Rain = 0
KPA1 111149Z 16004KT 17/16 A3015 RMK A01 T01740156  RH  090%=      5-min Rain = 0
KPA1 111150Z 16004KT 17/16 A3015 RMK A01 T01740157  RH  090%=      5-min Rain = 0
KPA1 111151Z 15004KT 17/16 A3015 RMK A01 T01740157  RH  090%=      5-min Rain = 0
KPA1 111152Z 16003KT 18/16 A3015 RMK A01 T01750157  RH  090%=      5-min Rain = 0
KPA1 111153Z 16003KT 18/16 A3015 RMK A01 T01750157  RH  089%=      5-min Rain = 0
KPA1 111154Z 16003KT 17/16 A3015 RMK A01 T01740157  RH  089%=      5-min Rain = 0
KPA1 111155Z 17003KT 18/16 A3015 RMK A01 T01750157  RH  090%=      5-min Rain = 0
KPA1 111156Z 17003KT 17/16 A3015 RMK A01 T01740157  RH  090%=      5-min Rain = 0
KPA1 111157Z 18003KT 18/16 A3015 RMK A01 T01750157  RH  090%=      5-min Rain = 0
KPA1 111158Z 18003KT 17/16 A3015 RMK A01 T01740157  RH  089%=      5-min Rain = 0
KPA1 111159Z 18003KT 18/16 A3015 RMK A01 T01750157  RH  089%=      5-min Rain = 0
KPA1 111200Z 18003KT 17/16 A3015 RMK A01 T01740156  RH  089%=      5-min Rain = 0
KPA1 111201Z 18003KT 17/16 A3015 RMK A01 T01740156  RH  089%=      5-min Rain = 0
KPA1 111202Z 18003KT 17/16 A3015 RMK A01 T01740156  RH  089%=      5-min Rain = 0
KPA1 111203Z 19003KT 17/16 A3015 RMK A01 T01740156  RH  089%=      5-min Rain = 0
KPA1 111204Z 18002KT 17/16 A3015 RMK A01 T01730155  RH  089%=      5-min Rain = 0
KPA1 111205Z 18002KT 17/16 A3015 RMK A01 T01730155  RH  089%=      5-min Rain = 0
KPA1 111206Z 18002KT 17/16 A3015 RMK A01 T01740155  RH  089%=      5-min Rain = 0
KPA1 111207Z 18002KT 17/16 A3015 RMK A01 T01730155  RH  089%=      5-min Rain = 0
KPA1 111208Z 18002KT 17/16 A3015 RMK A01 T01740155  RH  089%=      5-min Rain = 0
KPA1 111209Z 17002KT 17/15 A3015 RMK A01 T01740154  RH  088%=      5-min Rain = 0
KPA1 111210Z 17003KT 17/15 A3015 RMK A01 T01740154  RH  088%=      5-min Rain = 0
KPA1 111211Z 17003KT 17/15 A3015 RMK A01 T01740154  RH  088%=      5-min Rain = 0
KPA1 111212Z 16003KT 17/15 A3016 RMK A01 T01740154  RH  088%=      5-min Rain = 0
KPA1 111213Z 16004KT 18/16 A3016 RMK A01 T01750155  RH  088%=      5-min Rain = 0
KPA1 111214Z 15004KT 18/16 A3016 RMK A01 T01750155  RH  088%=      5-min Rain = 0
KPA1 111215Z 15004KT 18/16 A3016 RMK A01 T01760155  RH  088%=      5-min Rain = 0
KPA1 111216Z 15004KT 18/16 A3016 RMK A01 T01760155  RH  087%=      5-min Rain = 0
KPA1 111217Z 15004KT 18/16 A3016 RMK A01 T01770156  RH  087%=      5-min Rain = 0
KPA1 111218Z 16003KT 18/16 A3016 RMK A01 T01780155  RH  087%=      5-min Rain = 0
KPA1 111219Z 16003KT 18/16 A3016 RMK A01 T01780156  RH  087%=      5-min Rain = 0
KPA1 111220Z 16003KT 18/16 A3016 RMK A01 T01790157  RH  087%=      5-min Rain = 0
KPA1 111221Z 16003KT 18/16 A3016 RMK A01 T01800157  RH  086%=      5-min Rain = 0
KPA1 111222Z 16004KT 18/16 A3016 RMK A01 T01810157  RH  086%=      5-min Rain = 0
KPA1 111223Z 16004KT 18/16 A3016 RMK A01 T01810158  RH  086%=      5-min Rain = 0
KPA1 111224Z 16004KT 18/16 A3016 RMK A01 T01820158  RH  086%=      5-min Rain = 0
KPA1 111225Z 17004KT 18/16 A3016 RMK A01 T01830159  RH  086%=      5-min Rain = 0
KPA1 111226Z 16004KT 18/16 A3016 RMK A01 T01840159  RH  085%=      5-min Rain = 0
KPA1 111227Z 17003KT 19/16 A3016 RMK A01 T01850160  RH  085%=      5-min Rain = 0
KPA1 111228Z 16003KT 19/16 A3016 RMK A01 T01860160  RH  085%=      5-min Rain = 0
KPA1 111229Z 17003KT 19/16 A3016 RMK A01 T01860160  RH  085%=      5-min Rain = 0
KPA1 111230Z 17003KT 19/16 A3016 RMK A01 T01860160  RH  084%=      5-min Rain = 0
KPA1 111231Z 17003KT 19/16 A3016 RMK A01 T01860159  RH  084%=      5-min Rain = 0
KPA1 111232Z 18003KT 19/16 A3016 RMK A01 T01860160  RH  084%=      5-min Rain = 0
KPA1 111233Z 18003KT 19/16 A3016 RMK A01 T01860160  RH  085%=      5-min Rain = 0
KPA1 111234Z 18003KT 19/16 A3016 RMK A01 T01850160  RH  085%=      5-min Rain = 0
KPA1 111235Z 18002KT 19/16 A3016 RMK A01 T01850160  RH  085%=      5-min Rain = 0
KPA1 111236Z 19003KT 18/16 A3016 RMK A01 T01840159  RH  085%=      5-min Rain = 0
KPA1 111237Z 19003KT 18/16 A3016 RMK A01 T01830159  RH  086%=      5-min Rain = 0
KPA1 111238Z 19003KT 18/16 A3016 RMK A01 T01830159  RH  086%=      5-min Rain = 0
KPA1 111239Z 19004KT 18/16 A3016 RMK A01 T01830159  RH  086%=      5-min Rain = 0
KPA1 111240Z 19004KT 18/16 A3016 RMK A01 T01820159  RH  086%=      5-min Rain = 0
KPA1 111241Z 19004KT 18/16 A3016 RMK A01 T01810159  RH  087%=      5-min Rain = 0
KPA1 111242Z 19004KT 18/16 A3016 RMK A01 T01810159  RH  086%=      5-min Rain = 0
KPA1 111243Z 19004KT 18/16 A3016 RMK A01 T01820158  RH  086%=      5-min Rain = 0
KPA1 111244Z 19004KT 18/16 A3016 RMK A01 T01820159  RH  086%=      5-min Rain = 0
KPA1 111245Z 19004KT 18/16 A3016 RMK A01 T01810159  RH  087%=      5-min Rain = 0
KPA1 111246Z 19004KT 18/16 A3016 RMK A01 T01810160  RH  087%=      5-min Rain = 0
KPA1 111247Z 19004KT 18/16 A3016 RMK A01 T01800159  RH  088%=      5-min Rain = 0
KPA1 111248Z 19004KT 18/16 A3016 RMK A01 T01790160  RH  088%=      5-min Rain = 0
KPA1 111249Z 19004KT 18/16 A3016 RMK A01 T01790160  RH  089%=      5-min Rain = 0
KPA1 111250Z 19004KT 18/16 A3016 RMK A01 T01790160  RH  089%=      5-min Rain = 0
KPA1 111251Z 19004KT 18/16 A3016 RMK A01 T01790160  RH  089%=      5-min Rain = 0
KPA1 111252Z 18004KT 18/16 A3016 RMK A01 T01780160  RH  089%=      5-min Rain = 0
KPA1 111253Z 18004KT 18/16 A3016 RMK A01 T01790161  RH  089%=      5-min Rain = 0
KPA1 111254Z 19004KT 18/16 A3016 RMK A01 T01790160  RH  089%=      5-min Rain = 0
KPA1 111255Z 19004KT 18/16 A3016 RMK A01 T01800161  RH  089%=      5-min Rain = 0
KPA1 111256Z 19003KT 18/16 A3016 RMK A01 T01800161  RH  089%=      5-min Rain = 0
KPA1 111257Z 19003KT 18/16 A3016 RMK A01 T01800161  RH  089%=      5-min Rain = 0
KPA1 111258Z 19003KT 18/16 A3016 RMK A01 T01800161  RH  089%=      5-min Rain = 0
KPA1 111259Z 19003KT 18/16 A3016 RMK A01 T01810161  RH  088%=      5-min Rain = 0
KPA1 111300Z 18003KT 18/16 A3016 RMK A01 T01810161  RH  088%=      5-min Rain = 0
KPA1 111301Z 18003KT 18/16 A3016 RMK A01 T01810161  RH  088%=      5-min Rain = 0
KPA1 111302Z 18003KT 18/16 A3016 RMK A01 T01810161  RH  088%=      5-min Rain = 0
KPA1 111303Z 18003KT 18/16 A3016 RMK A01 T01820162  RH  088%=      5-min Rain = 0
KPA1 111304Z 17003KT 18/16 A3016 RMK A01 T01820162  RH  088%=      5-min Rain = 0
KPA1 111305Z 17003KT 18/16 A3016 RMK A01 T01830162  RH  088%=      5-min Rain = 0
KPA1 111306Z 17003KT 18/16 A3016 RMK A01 T01830163  RH  088%=      5-min Rain = 0
KPA1 111307Z 17003KT 18/16 A3016 RMK A01 T01840162  RH  087%=      5-min Rain = 0
KPA1 111308Z 17003KT 19/16 A3016 RMK A01 T01850162  RH  087%=      5-min Rain = 0
KPA1 111309Z 17003KT 19/16 A3016 RMK A01 T01850162  RH  086%=      5-min Rain = 0
KPA1 111310Z 17003KT 19/16 A3016 RMK A01 T01860162  RH  086%=      5-min Rain = 0
KPA1 111311Z 17003KT 19/16 A3016 RMK A01 T01870162  RH  086%=      5-min Rain = 0
KPA1 111312Z 17003KT 19/16 A3016 RMK A01 T01870162  RH  085%=      5-min Rain = 0
KPA1 111313Z 17003KT 19/16 A3016 RMK A01 T01880163  RH  085%=      5-min Rain = 0
KPA1 111314Z 17003KT 19/16 A3016 RMK A01 T01890163  RH  085%=      5-min Rain = 0
KPA1 111315Z 17003KT 19/16 A3016 RMK A01 T01900163  RH  085%=      5-min Rain = 0
KPA1 111316Z 17003KT 19/16 A3017 RMK A01 T01910163  RH  084%=      5-min Rain = 0
KPA1 111317Z 17003KT 19/16 A3017 RMK A01 T01910163  RH  084%=      5-min Rain = 0
KPA1 111318Z 16003KT 19/16 A3017 RMK A01 T01920163  RH  083%=      5-min Rain = 0
KPA1 111319Z 16003KT 19/16 A3017 RMK A01 T01920163  RH  083%=      5-min Rain = 0
KPA1 111320Z 16003KT 19/16 A3017 RMK A01 T01930163  RH  083%=      5-min Rain = 0
KPA1 111321Z 16003KT 19/16 A3017 RMK A01 T01940163  RH  082%=      5-min Rain = 0
KPA1 111322Z 16003KT 19/16 A3017 RMK A01 T01940162  RH  082%=      5-min Rain = 0
KPA1 111323Z 16003KT 20/16 A3017 RMK A01 T01950162  RH  082%=      5-min Rain = 0
KPA1 111324Z 16003KT 20/16 A3017 RMK A01 T01950163  RH  082%=      5-min Rain = 0
KPA1 111325Z 16003KT 20/16 A3017 RMK A01 T01950163  RH  082%=      5-min Rain = 0
KPA1 111326Z 16003KT 20/16 A3017 RMK A01 T01960163  RH  082%=      5-min Rain = 0
KPA1 111327Z 15003KT 20/16 A3017 RMK A01 T01960164  RH  082%=      5-min Rain = 0
KPA1 111328Z 15003KT 20/17 A3017 RMK A01 T01960165  RH  082%=      5-min Rain = 0
KPA1 111329Z 15003KT 20/17 A3017 RMK A01 T01960165  RH  082%=      5-min Rain = 0
KPA1 111330Z 15003KT 20/17 A3017 RMK A01 T01960165  RH  082%=      5-min Rain = 0
KPA1 111331Z 15003KT 20/17 A3017 RMK A01 T01960165  RH  082%=      5-min Rain = 0
KPA1 111332Z 15003KT 20/17 A3017 RMK A01 T01960165  RH  082%=      5-min Rain = 0
KPA1 111333Z 15003KT 20/17 A3017 RMK A01 T01970166  RH  082%=      5-min Rain = 0
KPA1 111334Z 15003KT 20/17 A3017 RMK A01 T01970166  RH  082%=      5-min Rain = 0
KPA1 111335Z 15004KT 20/17 A3017 RMK A01 T01980166  RH  082%=      5-min Rain = 0
KPA1 111336Z 15004KT 20/17 A3017 RMK A01 T01980166  RH  081%=      5-min Rain = 0
KPA1 111337Z 15003KT 20/17 A3017 RMK A01 T01990166  RH  081%=      5-min Rain = 0
KPA1 111338Z 15003KT 20/17 A3017 RMK A01 T01990166  RH  081%=      5-min Rain = 0
KPA1 111339Z 15003KT 20/17 A3017 RMK A01 T02000166  RH  081%=      5-min Rain = 0
KPA1 111340Z 16002KT 20/17 A3017 RMK A01 T02010167  RH  081%=      5-min Rain = 0
KPA1 111341Z 17002KT 20/17 A3017 RMK A01 T02030168  RH  080%=      5-min Rain = 0
KPA1 111342Z 17003KT 21/17 A3017 RMK A01 T02050168  RH  079%=      5-min Rain = 0
KPA1 111343Z 18003KT 21/17 A3017 RMK A01 T02070168  RH  078%=      5-min Rain = 0
KPA1 111344Z 17004KT 21/17 A3017 RMK A01 T02100168  RH  077%=      5-min Rain = 0
KPA1 111345Z 17005KT 21/17 A3017 RMK A01 T02140168  RH  075%=      5-min Rain = 0
KPA1 111346Z 18005KT 22/17 A3017 RMK A01 T02170169  RH  074%=      5-min Rain = 0
KPA1 111347Z 17004KT 22/17 A3017 RMK A01 T02210169  RH  073%=      5-min Rain = 0
KPA1 111348Z 18006KT 22/17 A3017 RMK A01 T02230170  RH  072%=      5-min Rain = 0
KPA1 111349Z 18006KT 23/17 A3017 RMK A01 T02250169  RH  070%=      5-min Rain = 0
KPA1 111350Z 18005KT 23/17 A3017 RMK A01 T02250170  RH  071%=      5-min Rain = 0
KPA1 111351Z 18005KT 23/17 A3017 RMK A01 T02260170  RH  071%=      5-min Rain = 0
KPA1 111352Z 17006KT 23/17 A3017 RMK A01 T02270169  RH  070%=      5-min Rain = 0
KPA1 111353Z 18006KT 23/17 A3017 RMK A01 T02270168  RH  069%=      5-min Rain = 0
KPA1 111354Z 18005KT 23/17 A3017 RMK A01 T02260168  RH  070%=      5-min Rain = 0
KPA1 111355Z 18005KT 23/17 A3017 RMK A01 T02260170  RH  071%=      5-min Rain = 0
KPA1 111356Z 18006KT 23/17 A3017 RMK A01 T02260170  RH  070%=      5-min Rain = 0
KPA1 111357Z 17007KT 23/17 A3017 RMK A01 T02270168  RH  069%=      5-min Rain = 0
KPA1 111358Z 17006KT 23/17 A3017 RMK A01 T02260168  RH  070%=      5-min Rain = 0
KPA1 111359Z 17006KT 23/17 A3017 RMK A01 T02250169  RH  071%=      5-min Rain = 0
KPA1 111400Z 17006KT 23/17 A3017 RMK A01 T02250168  RH  070%=      5-min Rain = 0
KPA1 111401Z 17007KT 23/17 A3017 RMK A01 T02260168  RH  070%=      5-min Rain = 0
KPA1 111402Z 18006KT 23/17 A3017 RMK A01 T02260167  RH  069%=      5-min Rain = 0
KPA1 111403Z 18006KT 23/17 A3017 RMK A01 T02270169  RH  070%=      5-min Rain = 0
KPA1 111404Z 18006KT 23/17 A3017 RMK A01 T02280169  RH  069%=      5-min Rain = 0
KPA1 111405Z 19006KT 23/17 A3017 RMK A01 T02290169  RH  069%=      5-min Rain = 0
KPA1 111406Z 19007KT 23/17 A3017 RMK A01 T02300169  RH  069%=      5-min Rain = 0
KPA1 111407Z 18007KT 23/17 A3017 RMK A01 T02300169  RH  068%=      5-min Rain = 0
KPA1 111408Z 18006KT 23/17 A3017 RMK A01 T02300169  RH  068%=      5-min Rain = 0
KPA1 111409Z 18007KT 23/17 A3017 RMK A01 T02300169  RH  068%=      5-min Rain = 0
KPA1 111410Z 18007KT 23/17 A3017 RMK A01 T02300168  RH  068%=      5-min Rain = 0
KPA1 111411Z 18007KT 23/17 A3017 RMK A01 T02310169  RH  068%=      5-min Rain = 0
KPA1 111412Z 18007KT 23/17 A3017 RMK A01 T02330169  RH  067%=      5-min Rain = 0
KPA1 111413Z 18008KT 23/17 A3017 RMK A01 T02340168  RH  066%=      5-min Rain = 0
KPA1 111414Z 18007KT 23/17 A3017 RMK A01 T02340168  RH  066%=      5-min Rain = 0
KPA1 111415Z 18006KT 24/17 A3018 RMK A01 T02360171  RH  067%=      5-min Rain = 0
KPA1 111416Z 18007KT 24/17 A3018 RMK A01 T02390171  RH  066%=      5-min Rain = 0
KPA1 111417Z 19007KT 24/17 A3018 RMK A01 T02410171  RH  065%=      5-min Rain = 0
KPA1 111418Z 18007KT 24/17 A3018 RMK A01 T02430173  RH  065%=      5-min Rain = 0
KPA1 111419Z 19007KT 24/17 A3018 RMK A01 T02440172  RH  064%=      5-min Rain = 0
KPA1 111420Z 20007KT 24/17 A3018 RMK A01 T02440172  RH  064%=      5-min Rain = 0
KPA1 111421Z 20006KT 25/17 A3018 RMK A01 T02450172  RH  064%=      5-min Rain = 0
KPA1 111422Z 19006KT 25/17 A3018 RMK A01 T02450173  RH  064%=      5-min Rain = 0
KPA1 111423Z 19007KT 25/17 A3018 RMK A01 T02470174  RH  064%=      5-min Rain = 0
KPA1 111424Z 19008KT 25/17 A3018 RMK A01 T02490174  RH  063%=      5-min Rain = 0
KPA1 111425Z 21007KT 25/17 A3018 RMK A01 T02500174  RH  063%=      5-min Rain = 0
KPA1 111426Z 21007KT 25/17 A3018 RMK A01 T02490174  RH  063%=      5-min Rain = 0
KPA1 111427Z 19006KT 25/17 A3018 RMK A01 T02500173  RH  062%=      5-min Rain = 0
KPA1 111428Z 20007KT 25/18 A3018 RMK A01 T02500176  RH  063%=      5-min Rain = 0
KPA1 111429Z 20008KT 25/17 A3018 RMK A01 T02510173  RH  062%=      5-min Rain = 0
KPA1 111430Z 21009KT 25/18 A3018 RMK A01 T02530175  RH  062%=      5-min Rain = 0
KPA1 111431Z 21008KT 26/17 A3018 RMK A01 T02550173  RH  060%=      5-min Rain = 0
KPA1 111432Z 21010KT 26/17 A3018 RMK A01 T02560170  RH  059%=      5-min Rain = 0
KPA1 111433Z 21010KT 26/17 A3018 RMK A01 T02560169  RH  059%=      5-min Rain = 0
KPA1 111434Z 21011KT 26/17 A3018 RMK A01 T02560170  RH  059%=      5-min Rain = 0
KPA1 111435Z 20010KT 26/17 A3018 RMK A01 T02560170  RH  059%=      5-min Rain = 0
KPA1 111436Z 20009KT 26/17 A3017 RMK A01 T02570171  RH  059%=      5-min Rain = 0
KPA1 111437Z 21010KT 26/17 A3017 RMK A01 T02590171  RH  058%=      5-min Rain = 0
KPA1 111438Z 21012KT 26/17 A3017 RMK A01 T02590168  RH  057%=      5-min Rain = 0
KPA1 111439Z 21011KT 26/17 A3017 RMK A01 T02580167  RH  057%=      5-min Rain = 0
KPA1 111440Z 20011KT 26/17 A3017 RMK A01 T02580171  RH  059%=      5-min Rain = 0
KPA1 111441Z 19011KT 26/17 A3017 RMK A01 T02600172  RH  058%=      5-min Rain = 0
KPA1 111442Z 21011KT 26/17 A3017 RMK A01 T02620172  RH  058%=      5-min Rain = 0
KPA1 111443Z 22011KT 26/17 A3017 RMK A01 T02620168  RH  056%=      5-min Rain = 0
KPA1 111444Z 21011KT 26/17 A3017 RMK A01 T02600170  RH  058%=      5-min Rain = 0
KPA1 111445Z 20010KT 26/17 A3017 RMK A01 T02590170  RH  058%=      5-min Rain = 0
KPA1 111446Z 19011KT 26/17 A3017 RMK A01 T02600168  RH  057%=      5-min Rain = 0
KPA1 111447Z 21010KT 26/17 A3017 RMK A01 T02610168  RH  056%=      5-min Rain = 0
KPA1 111448Z 22010KT 26/17 A3017 RMK A01 T02630172  RH  057%=      5-min Rain = 0
KPA1 111449Z 21011KT 26/17 A3017 RMK A01 T02640167  RH  055%=      5-min Rain = 0
KPA1 111450Z 22010KT 26/17 A3017 RMK A01 T02640165  RH  055%=      5-min Rain = 0
KPA1 111451Z 21011KT 26/17 A3017 RMK A01 T02640165  RH  055%=      5-min Rain = 0
KPA1 111452Z 21010KT 26/17 A3017 RMK A01 T02640165  RH  055%=      5-min Rain = 0
KPA1 111453Z 22012KT 26/17 A3017 RMK A01 T02630166  RH  055%=      5-min Rain = 0
KPA1 111454Z 22012KT 26/16 A3017 RMK A01 T02640163  RH  054%=      5-min Rain = 0
KPA1 111455Z 21011KT 26/16 A3017 RMK A01 T02630163  RH  054%=      5-min Rain = 0
KPA1 111456Z 21010KT 26/16 A3017 RMK A01 T02630164  RH  055%=      5-min Rain = 0
KPA1 111457Z 22011KT 26/17 A3017 RMK A01 T02640165  RH  055%=      5-min Rain = 0
KPA1 111458Z 22012KT 26/17 A3017 RMK A01 T02640165  RH  055%=      5-min Rain = 0
KPA1 111459Z 21011KT 26/16 A3017 RMK A01 T02640164  RH  054%=      5-min Rain = 0
KPA1 111500Z 21010KT 27/17 A3017 RMK A01 T02680167  RH  054%=      5-min Rain = 0
KPA1 111501Z 21011KT 27/17 A3017 RMK A01 T02710167  RH  053%=      5-min Rain = 0
KPA1 111502Z 21011KT 27/17 A3017 RMK A01 T02720165  RH  052%=      5-min Rain = 0
KPA1 111503Z 22010KT 27/16 A3017 RMK A01 T02710164  RH  052%=      5-min Rain = 0
KPA1 111504Z 21012KT 27/16 A3017 RMK A01 T02720164  RH  052%=      5-min Rain = 0
KPA1 111505Z 21011KT 27/16 A3017 RMK A01 T02730161  RH  050%=      5-min Rain = 0
KPA1 111506Z 20012KT 27/16 A3017 RMK A01 T02740162  RH  050%=      5-min Rain = 0
KPA1 111507Z 21012KT 28/16 A3017 RMK A01 T02750161  RH  050%=      5-min Rain = 0
KPA1 111508Z 21010KT 28/16 A3017 RMK A01 T02750161  RH  050%=      5-min Rain = 0
KPA1 111509Z 21011KT 28/17 A3017 RMK A01 T02780165  RH  050%=      5-min Rain = 0
KPA1 111510Z 22011KT 28/16 A3017 RMK A01 T02810160  RH  048%=      5-min Rain = 0
KPA1 111511Z 21010KT 28/16 A3017 RMK A01 T02800162  RH  049%=      5-min Rain = 0
KPA1 111512Z 21010KT 28/16 A3017 RMK A01 T02810163  RH  049%=      5-min Rain = 0
KPA1 111513Z 20010G16KT 28/16 A3017 RMK A01 T02820161  RH  048%=      5-min Rain = 0
KPA1 111514Z 19012KT 28/16 A3017 RMK A01 T02820160  RH  048%=      5-min Rain = 0
KPA1 111515Z 19013KT 28/16 A3017 RMK A01 T02800159  RH  048%=      5-min Rain = 0
KPA1 111516Z 20014KT 28/16 A3017 RMK A01 T02800157  RH  047%=      5-min Rain = 0
KPA1 111517Z 22012KT 28/16 A3017 RMK A01 T02820159  RH  047%=      5-min Rain = 0
KPA1 111518Z 21013KT 28/16 A3017 RMK A01 T02840157  RH  046%=      5-min Rain = 0
KPA1 111519Z 22013KT 28/16 A3017 RMK A01 T02840157  RH  046%=      5-min Rain = 0
KPA1 111520Z 22012KT 29/16 A3017 RMK A01 T02850156  RH  046%=      5-min Rain = 0
KPA1 111521Z 20015KT 29/15 A3017 RMK A01 T02850152  RH  044%=      5-min Rain = 0
KPA1 111522Z 20016KT 29/15 A3017 RMK A01 T02850147  RH  043%=      5-min Rain = 0
KPA1 111523Z 20015KT 28/15 A3017 RMK A01 T02840148  RH  043%=      5-min Rain = 0
KPA1 111524Z 21015KT 29/15 A3016 RMK A01 T02850148  RH  043%=      5-min Rain = 0
KPA1 111525Z 21014KT 29/15 A3016 RMK A01 T02850148  RH  043%=      5-min Rain = 0
KPA1 111526Z 20012KT 29/15 A3016 RMK A01 T02860150  RH  044%=      5-min Rain = 0
KPA1 111527Z 21011KT 29/15 A3016 RMK A01 T02880152  RH  044%=      5-min Rain = 0
KPA1 111528Z 21013KT 29/15 A3016 RMK A01 T02890152  RH  043%=      5-min Rain = 0
KPA1 111529Z 20016KT 29/15 A3016 RMK A01 T02890151  RH  043%=      5-min Rain = 0
KPA1 111530Z 20015KT 29/15 A3016 RMK A01 T02890150  RH  043%=      5-min Rain = 0
KPA1 111531Z 21013KT 29/15 A3016 RMK A01 T02900150  RH  043%=      5-min Rain = 0
KPA1 111532Z 22017KT 29/15 A3016 RMK A01 T02900149  RH  042%=      5-min Rain = 0
KPA1 111533Z 22013KT 29/15 A3016 RMK A01 T02880151  RH  043%=      5-min Rain = 0
KPA1 111534Z 23015KT 29/15 A3016 RMK A01 T02910150  RH  042%=      5-min Rain = 0
KPA1 111535Z 20013KT 29/15 A3016 RMK A01 T02910153  RH  043%=      5-min Rain = 0
KPA1 111536Z 20014KT 29/15 A3016 RMK A01 T02930151  RH  042%=      5-min Rain = 0
KPA1 111537Z 21012KT 29/15 A3016 RMK A01 T02930149  RH  042%=      5-min Rain = 0
KPA1 111538Z 20012KT 29/15 A3016 RMK A01 T02920150  RH  042%=      5-min Rain = 0
KPA1 111539Z 20013KT 29/15 A3016 RMK A01 T02910151  RH  042%=      5-min Rain = 0
KPA1 111540Z 20013KT 29/15 A3016 RMK A01 T02930151  RH  042%=      5-min Rain = 0
KPA1 111541Z 20013KT 29/15 A3016 RMK A01 T02910147  RH  041%=      5-min Rain = 0
KPA1 111542Z 20015KT 29/15 A3016 RMK A01 T02920148  RH  042%=      5-min Rain = 0
KPA1 111543Z 20015KT 29/15 A3016 RMK A01 T02920149  RH  042%=      5-min Rain = 0
KPA1 111544Z 20014G19KT 29/15 A3016 RMK A01 T02920150  RH  042%=      5-min Rain = 0
KPA1 111545Z 21014KT 29/15 A3016 RMK A01 T02930150  RH  042%=      5-min Rain = 0
KPA1 111546Z 21011KT 29/15 A3016 RMK A01 T02940148  RH  041%=      5-min Rain = 0
KPA1 111547Z 21012G17KT 29/15 A3016 RMK A01 T02920149  RH  042%=      5-min Rain = 0
KPA1 111548Z 20015KT 29/15 A3016 RMK A01 T02920150  RH  042%=      5-min Rain = 0
KPA1 111549Z 19017KT 29/15 A3016 RMK A01 T02920147  RH  041%=      5-min Rain = 0
KPA1 111550Z 20016KT 29/14 A3016 RMK A01 T02920144  RH  041%=      5-min Rain = 0
KPA1 111551Z 19013KT 29/15 A3016 RMK A01 T02920146  RH  041%=      5-min Rain = 0
KPA1 111552Z 21013KT 29/15 A3016 RMK A01 T02940152  RH  042%=      5-min Rain = 0
KPA1 111553Z 21012KT 30/15 A3016 RMK A01 T02970153  RH  042%=      5-min Rain = 0
KPA1 111554Z 22012KT 30/15 A3016 RMK A01 T02970152  RH  041%=      5-min Rain = 0
KPA1 111555Z 20015KT 30/15 A3016 RMK A01 T02990152  RH  041%=      5-min Rain = 0
KPA1 111556Z 19014KT 30/15 A3016 RMK A01 T02970147  RH  040%=      5-min Rain = 0
KPA1 111557Z 19013KT 30/15 A3016 RMK A01 T02950148  RH  041%=      5-min Rain = 0
KPA1 111558Z 19011KT 30/15 A3016 RMK A01 T02950149  RH  041%=      5-min Rain = 0
KPA1 111559Z 19014KT 30/15 A3016 RMK A01 T02960149  RH  041%=      5-min Rain = 0
KPA1 111600Z 19014KT 30/15 A3016 RMK A01 T02960152  RH  041%=      5-min Rain = 0
KPA1 111601Z 19014KT 30/15 A3016 RMK A01 T02970150  RH  041%=      5-min Rain = 0
KPA1 111602Z 20012KT 30/15 A3016 RMK A01 T02980150  RH  041%=      5-min Rain = 0
KPA1 111603Z 20015KT 30/15 A3016 RMK A01 T02970148  RH  040%=      5-min Rain = 0
KPA1 111604Z 19013KT 30/15 A3016 RMK A01 T02950150  RH  041%=      5-min Rain = 0
KPA1 111605Z 19014KT 30/15 A3016 RMK A01 T02950150  RH  041%=      5-min Rain = 0
KPA1 111606Z 18012KT 30/15 A3016 RMK A01 T02970149  RH  041%=      5-min Rain = 0
KPA1 111607Z 20011KT 30/15 A3016 RMK A01 T02970148  RH  040%=      5-min Rain = 0
KPA1 111608Z 18012G18KT 30/15 A3016 RMK A01 T02980154  RH  042%=      5-min Rain = 0
KPA1 111609Z 20016KT 30/15 A3016 RMK A01 T03020151  RH  040%=      5-min Rain = 0
KPA1 111610Z 19014KT 30/15 A3016 RMK A01 T03010151  RH  040%=      5-min Rain = 0
KPA1 111611Z 18014KT 30/15 A3016 RMK A01 T02990148  RH  040%=      5-min Rain = 0
KPA1 111612Z 18015KT 30/15 A3016 RMK A01 T02980148  RH  040%=      5-min Rain = 0
KPA1 111613Z 19014KT 30/15 A3016 RMK A01 T02990148  RH  040%=      5-min Rain = 0
KPA1 111614Z 20012KT 30/16 A3016 RMK A01 T03020156  RH  041%=      5-min Rain = 0
KPA1 111615Z 20013KT 30/15 A3016 RMK A01 T03040150  RH  039%=      5-min Rain = 0
KPA1 111616Z 18009KT 30/15 A3016 RMK A01 T03000147  RH  039%=      5-min Rain = 0
KPA1 111617Z 18009KT 30/15 A3016 RMK A01 T02980147  RH  040%=      5-min Rain = 0
KPA1 111618Z 20011KT 30/15 A3016 RMK A01 T02980149  RH  040%=      5-min Rain = 0
KPA1 111619Z 20012KT 30/15 A3016 RMK A01 T02990153  RH  041%=      5-min Rain = 0
KPA1 111620Z 21014KT 30/15 A3016 RMK A01 T03030153  RH  040%=      5-min Rain = 0
KPA1 111621Z 21012KT 30/15 A3016 RMK A01 T03000148  RH  040%=      5-min Rain = 0
KPA1 111622Z 20013KT 30/15 A3016 RMK A01 T02980149  RH  040%=      5-min Rain = 0
KPA1 111623Z 21011KT 30/15 A3016 RMK A01 T02980148  RH  040%=      5-min Rain = 0
KPA1 111624Z 20008KT 30/15 A3016 RMK A01 T02970151  RH  041%=      5-min Rain = 0
KPA1 111625Z 19007KT 30/15 A3016 RMK A01 T03000154  RH  041%=      5-min Rain = 0
KPA1 111626Z 19012KT 31/15 A3016 RMK A01 T03050153  RH  040%=      5-min Rain = 0
KPA1 111627Z 20011KT 31/15 A3016 RMK A01 T03050147  RH  038%=      5-min Rain = 0
KPA1 111628Z 20010G15KT 30/15 A3016 RMK A01 T03000147  RH  039%=      5-min Rain = 0
KPA1 111629Z 21013KT 30/15 A3016 RMK A01 T03000149  RH  040%=      5-min Rain = 0
KPA1 111630Z 23011KT 30/15 A3016 RMK A01 T03010146  RH  039%=      5-min Rain = 0
KPA1 111631Z 22008KT 30/15 A3016 RMK A01 T03010147  RH  039%=      5-min Rain = 0
KPA1 111632Z 22011KT 30/15 A3016 RMK A01 T03020148  RH  039%=      5-min Rain = 0
KPA1 111633Z 22008KT 30/14 A3016 RMK A01 T03010144  RH  038%=      5-min Rain = 0
KPA1 111634Z 22008KT 30/15 A3016 RMK A01 T02990148  RH  040%=      5-min Rain = 0
KPA1 111635Z 22009KT 30/15 A3016 RMK A01 T03000149  RH  040%=      5-min Rain = 0
KPA1 111636Z 21012KT 30/15 A3016 RMK A01 T03000149  RH  040%=      5-min Rain = 0
KPA1 111637Z 19012KT 30/15 A3016 RMK A01 T03030151  RH  040%=      5-min Rain = 0
KPA1 111638Z 19011KT 31/15 A3016 RMK A01 T03050145  RH  038%=      5-min Rain = 0
KPA1 111639Z 19011KT 31/15 A3016 RMK A01 T03050145  RH  038%=      5-min Rain = 0
KPA1 111640Z 19010KT 30/15 A3015 RMK A01 T03040145  RH  038%=      5-min Rain = 0
KPA1 111641Z 20009KT 30/14 A3015 RMK A01 T03020144  RH  038%=      5-min Rain = 0
KPA1 111642Z 21012KT 30/15 A3015 RMK A01 T03010147  RH  039%=      5-min Rain = 0
KPA1 111643Z 20013KT 30/15 A3015 RMK A01 T03000148  RH  039%=      5-min Rain = 0
KPA1 111644Z 20012KT 30/15 A3015 RMK A01 T03010147  RH  039%=      5-min Rain = 0
KPA1 111645Z 20012KT 30/15 A3015 RMK A01 T03000148  RH  040%=      5-min Rain = 0
KPA1 111646Z 20012KT 30/14 A3015 RMK A01 T02970144  RH  039%=      5-min Rain = 0
KPA1 111647Z 21008KT 30/14 A3015 RMK A01 T02960141  RH  039%=      5-min Rain = 0
KPA1 111648Z 20008KT 30/14 A3015 RMK A01 T02950141  RH  039%=      5-min Rain = 0
KPA1 111649Z 19007KT 30/14 A3015 RMK A01 T02950143  RH  039%=      5-min Rain = 0
KPA1 111650Z 18014KT 30/15 A3015 RMK A01 T02960146  RH  040%=      5-min Rain = 0
KPA1 111651Z 20013KT 30/14 A3015 RMK A01 T02980144  RH  039%=      5-min Rain = 0
KPA1 111652Z 20010KT 30/14 A3015 RMK A01 T02960143  RH  039%=      5-min Rain = 0
KPA1 111653Z 21009KT 30/15 A3015 RMK A01 T02960145  RH  040%=      5-min Rain = 0
KPA1 111654Z 21008KT 30/15 A3015 RMK A01 T03010145  RH  039%=      5-min Rain = 0
KPA1 111655Z 19006KT 31/15 A3015 RMK A01 T03050147  RH  038%=      5-min Rain = 0
KPA1 111656Z 17012KT 31/15 A3015 RMK A01 T03090150  RH  038%=      5-min Rain = 0
KPA1 111657Z 18016KT 31/15 A3015 RMK A01 T03120146  RH  037%=      5-min Rain = 0
KPA1 111658Z 19013G21KT 31/15 A3015 RMK A01 T03130145  RH  036%=      5-min Rain = 0
KPA1 111659Z 18016KT 31/14 A3015 RMK A01 T03140144  RH  036%=      5-min Rain = 0
KPA1 111700Z 18014KT 31/14 A3015 RMK A01 T03140144  RH  036%=      5-min Rain = 0
KPA1 111701Z 17012KT 31/14 A3015 RMK A01 T03130142  RH  035%=      5-min Rain = 0
KPA1 111702Z 17010KT 32/14 A3015 RMK A01 T03150142  RH  035%=      5-min Rain = 0
KPA1 111703Z 18016KT 32/14 A3015 RMK A01 T03160144  RH  035%=      5-min Rain = 0
KPA1 111704Z 19017KT 32/14 A3015 RMK A01 T03170142  RH  035%=      5-min Rain = 0
KPA1 111705Z 18016KT 32/14 A3015 RMK A01 T03170141  RH  034%=      5-min Rain = 0
KPA1 111706Z 19015KT 31/14 A3015 RMK A01 T03140142  RH  035%=      5-min Rain = 0
KPA1 111707Z 18012KT 31/14 A3015 RMK A01 T03120140  RH  035%=      5-min Rain = 0
KPA1 111708Z 19012KT 31/14 A3015 RMK A01 T03100140  RH  036%=      5-min Rain = 0
KPA1 111709Z 19010KT 31/14 A3015 RMK A01 T03090138  RH  035%=      5-min Rain = 0
KPA1 111710Z 19009KT 31/14 A3015 RMK A01 T03080140  RH  036%=      5-min Rain = 0
KPA1 111711Z 18016G21KT 31/14 A3015 RMK A01 T03120144  RH  036%=      5-min Rain = 0
KPA1 111712Z 18014KT 32/14 A3015 RMK A01 T03170142  RH  035%=      5-min Rain = 0
KPA1 111713Z 18012KT 31/14 A3015 RMK A01 T03140139  RH  035%=      5-min Rain = 0
KPA1 111714Z 18014KT 31/14 A3015 RMK A01 T03130142  RH  035%=      5-min Rain = 0
KPA1 111715Z 18014KT 32/14 A3015 RMK A01 T03150140  RH  035%=      5-min Rain = 0
KPA1 111716Z 18011KT 32/14 A3015 RMK A01 T03160140  RH  034%=      5-min Rain = 0
KPA1 111717Z 19013KT 32/14 A3015 RMK A01 T03160143  RH  035%=      5-min Rain = 0
KPA1 111718Z 21011KT 32/14 A3015 RMK A01 T03170140  RH  034%=      5-min Rain = 0
KPA1 111719Z 19015KT 32/14 A3015 RMK A01 T03150141  RH  035%=      5-min Rain = 0
KPA1 111720Z 17015KT 32/14 A3015 RMK A01 T03190143  RH  035%=      5-min Rain = 0
KPA1 111721Z 16013KT 32/14 A3015 RMK A01 T03190138  RH  033%=      5-min Rain = 0
KPA1 111722Z 17013KT 32/14 A3015 RMK A01 T03180140  RH  034%=      5-min Rain = 0
KPA1 111723Z 17015KT 32/14 A3015 RMK A01 T03190140  RH  034%=      5-min Rain = 0
KPA1 111724Z 18014KT 32/14 A3015 RMK A01 T03190141  RH  034%=      5-min Rain = 0
KPA1 111725Z 19010KT 32/14 A3015 RMK A01 T03190140  RH  034%=      5-min Rain = 0
KPA1 111726Z 18010KT 32/15 A3015 RMK A01 T03170146  RH  035%=      5-min Rain = 0
KPA1 111727Z 17013KT 32/15 A3015 RMK A01 T03220147  RH  035%=      5-min Rain = 0
KPA1 111728Z 18011KT 32/14 A3015 RMK A01 T03230143  RH  034%=      5-min Rain = 0
KPA1 111729Z 18011KT 32/14 A3015 RMK A01 T03190140  RH  034%=      5-min Rain = 0
KPA1 111730Z 18016G21KT 32/14 A3015 RMK A01 T03170143  RH  035%=      5-min Rain = 0
KPA1 111731Z 18017KT 32/14 A3015 RMK A01 T03200138  RH  033%=      5-min Rain = 0
KPA1 111732Z 18017G23KT 32/14 A3015 RMK A01 T03210137  RH  033%=      5-min Rain = 0
KPA1 111733Z 18017KT 32/14 A3015 RMK A01 T03200138  RH  033%=      5-min Rain = 0
KPA1 111734Z 17014KT 32/14 A3015 RMK A01 T03190139  RH  033%=      5-min Rain = 0
KPA1 111735Z 19012KT 32/14 A3015 RMK A01 T03170136  RH  033%=      5-min Rain = 0
KPA1 111736Z 17015KT 32/14 A3015 RMK A01 T03170140  RH  034%=      5-min Rain = 0
KPA1 111737Z 17015KT 32/14 A3015 RMK A01 T03230139  RH  033%=      5-min Rain = 0
KPA1 111738Z 16013KT 33/14 A3015 RMK A01 T03260137  RH  032%=      5-min Rain = 0
KPA1 111739Z 16013KT 32/14 A3015 RMK A01 T03220135  RH  032%=      5-min Rain = 0
KPA1 111740Z 16010KT 32/14 A3014 RMK A01 T03200137  RH  033%=      5-min Rain = 0
KPA1 111741Z 16012KT 32/14 A3014 RMK A01 T03190138  RH  033%=      5-min Rain = 0
KPA1 111742Z 16012KT 32/14 A3014 RMK A01 T03150136  RH  034%=      5-min Rain = 0
KPA1 111743Z 19016KT 31/14 A3014 RMK A01 T03140141  RH  035%=      5-min Rain = 0
KPA1 111744Z 18013KT 32/14 A3014 RMK A01 T03170140  RH  034%=      5-min Rain = 0
KPA1 111745Z 19011KT 31/14 A3014 RMK A01 T03140138  RH  034%=      5-min Rain = 0
KPA1 111746Z 19010KT 32/14 A3014 RMK A01 T03150140  RH  035%=      5-min Rain = 0
KPA1 111747Z 20014KT 32/14 A3014 RMK A01 T03180143  RH  035%=      5-min Rain = 0
KPA1 111748Z 19013KT 32/14 A3014 RMK A01 T03180143  RH  035%=      5-min Rain = 0
KPA1 111749Z 20014KT 31/14 A3014 RMK A01 T03140139  RH  034%=      5-min Rain = 0
KPA1 111750Z 20013KT 31/14 A3014 RMK A01 T03110138  RH  035%=      5-min Rain = 0
KPA1 111751Z 19014KT 31/14 A3014 RMK A01 T03100140  RH  036%=      5-min Rain = 0
KPA1 111752Z 18015G21KT 31/14 A3014 RMK A01 T03140141  RH  035%=      5-min Rain = 0
KPA1 111753Z 18016KT 32/14 A3014 RMK A01 T03180143  RH  035%=      5-min Rain = 0
KPA1 111754Z 17014KT 32/14 A3014 RMK A01 T03170139  RH  034%=      5-min Rain = 0
KPA1 111755Z 17010KT 31/14 A3014 RMK A01 T03140139  RH  035%=      5-min Rain = 0
KPA1 111756Z 19015KT 32/14 A3014 RMK A01 T03170144  RH  035%=      5-min Rain = 0
KPA1 111757Z 19014KT 32/14 A3014 RMK A01 T03200142  RH  034%=      5-min Rain = 0
KPA1 111758Z 20013KT 32/14 A3014 RMK A01 T03210140  RH  033%=      5-min Rain = 0
KPA1 111759Z 19013KT 32/14 A3014 RMK A01 T03210142  RH  034%=      5-min Rain = 0
KPA1 111800Z 19012KT 32/14 A3014 RMK A01 T03200141  RH  034%=      5-min Rain = 0
KPA1 111801Z 17018KT 33/14 A3014 RMK A01 T03260143  RH  033%=      5-min Rain = 0
KPA1 111802Z 18014KT 33/14 A3014 RMK A01 T03290136  RH  031%=      5-min Rain = 0
KPA1 111803Z 18013G19KT 33/14 A3014 RMK A01 T03250135  RH  032%=      5-min Rain = 0
KPA1 111804Z 18018KT 33/14 A3014 RMK A01 T03280136  RH  031%=      5-min Rain = 0
KPA1 111805Z 17015KT 33/13 A3014 RMK A01 T03270133  RH  031%=      5-min Rain = 0
KPA1 111806Z 18014KT 33/14 A3014 RMK A01 T03250135  RH  032%=      5-min Rain = 0
KPA1 111807Z 16018KT 32/14 A3014 RMK A01 T03240136  RH  032%=      5-min Rain = 0
KPA1 111808Z 16013G19KT 32/13 A3014 RMK A01 T03220134  RH  032%=      5-min Rain = 0
KPA1 111809Z 18016KT 32/14 A3014 RMK A01 T03210135  RH  032%=      5-min Rain = 0
KPA1 111810Z 17015KT 32/13 A3014 RMK A01 T03220134  RH  032%=      5-min Rain = 0
KPA1 111811Z 16014KT 32/13 A3014 RMK A01 T03240134  RH  032%=      5-min Rain = 0
KPA1 111812Z 17011KT 33/14 A3014 RMK A01 T03250135  RH  032%=      5-min Rain = 0
KPA1 111813Z 17012KT 33/14 A3014 RMK A01 T03270136  RH  032%=      5-min Rain = 0
KPA1 111814Z 17011KT 33/14 A3014 RMK A01 T03280137  RH  031%=      5-min Rain = 0
KPA1 111815Z 16015G21KT 33/14 A3014 RMK A01 T03270135  RH  031%=      5-min Rain = 0
KPA1 111816Z 16019KT 33/14 A3014 RMK A01 T03270135  RH  031%=      5-min Rain = 0
KPA1 111817Z 15016KT 33/13 A3014 RMK A01 T03260133  RH  031%=      5-min Rain = 0
KPA1 111818Z 16015KT 32/13 A3014 RMK A01 T03240133  RH  031%=      5-min Rain = 0
KPA1 111819Z 15013KT 32/13 A3014 RMK A01 T03230134  RH  032%=      5-min Rain = 0
KPA1 111820Z 15014G19KT 32/14 A3013 RMK A01 T03220136  RH  032%=      5-min Rain = 0
KPA1 111821Z 16014KT 32/14 A3013 RMK A01 T03240135  RH  032%=      5-min Rain = 0
KPA1 111822Z 17010KT 33/14 A3013 RMK A01 T03250136  RH  032%=      5-min Rain = 0
KPA1 111823Z 16012KT 32/14 A3013 RMK A01 T03240137  RH  032%=      5-min Rain = 0
KPA1 111824Z 17015KT 32/14 A3013 RMK A01 T03230138  RH  033%=      5-min Rain = 0
KPA1 111825Z 18014KT 32/14 A3013 RMK A01 T03220135  RH  032%=      5-min Rain = 0
KPA1 111826Z 18012KT 32/13 A3013 RMK A01 T03170134  RH  033%=      5-min Rain = 0
KPA1 111827Z 17012KT 31/13 A3013 RMK A01 T03140132  RH  033%=      5-min Rain = 0
KPA1 111828Z 17009KT 31/13 A3013 RMK A01 T03100130  RH  033%=      5-min Rain = 0
KPA1 111829Z 17009KT 31/13 A3013 RMK A01 T03100134  RH  034%=      5-min Rain = 0
KPA1 111830Z 17016G21KT 32/14 A3013 RMK A01 T03170137  RH  034%=      5-min Rain = 0
KPA1 111831Z 17017KT 32/13 A3013 RMK A01 T03240131  RH  031%=      5-min Rain = 0
KPA1 111832Z 18017KT 33/13 A3013 RMK A01 T03260130  RH  030%=      5-min Rain = 0
KPA1 111833Z 19013KT 33/13 A3013 RMK A01 T03290127  RH  029%=      5-min Rain = 0
KPA1 111834Z 19013KT 33/13 A3013 RMK A01 T03290128  RH  030%=      5-min Rain = 0
KPA1 111835Z 18020KT 33/13 A3013 RMK A01 T03310128  RH  029%=      5-min Rain = 0
KPA1 111836Z 19021KT 33/12 A3013 RMK A01 T03310123  RH  028%=      5-min Rain = 0
KPA1 111837Z 18018KT 33/12 A3013 RMK A01 T03310118  RH  027%=      5-min Rain = 0
KPA1 111838Z 19021KT 33/12 A3013 RMK A01 T03290119  RH  028%=      5-min Rain = 0
KPA1 111839Z 18021KT 33/12 A3013 RMK A01 T03290122  RH  028%=      5-min Rain = 0
KPA1 111840Z 19017KT 33/12 A3013 RMK A01 T03290122  RH  028%=      5-min Rain = 0
KPA1 111841Z 19012G17KT 33/12 A3013 RMK A01 T03290122  RH  028%=      5-min Rain = 0
KPA1 111842Z 20015G20KT 33/13 A3013 RMK A01 T03300127  RH  029%=      5-min Rain = 0
KPA1 111843Z 21012KT 33/12 A3013 RMK A01 T03310121  RH  028%=      5-min Rain = 0
KPA1 111844Z 16015KT 33/12 A3013 RMK A01 T03260121  RH  029%=      5-min Rain = 0
KPA1 111845Z 16011KT 33/12 A3013 RMK A01 T03270119  RH  028%=      5-min Rain = 0
KPA1 111846Z 15009KT 32/12 A3013 RMK A01 T03240118  RH  028%=      5-min Rain = 0
KPA1 111847Z 16009KT 33/12 A3013 RMK A01 T03250124  RH  029%=      5-min Rain = 0
KPA1 111848Z 17011KT 33/12 A3012 RMK A01 T03270123  RH  029%=      5-min Rain = 0
KPA1 111849Z 17013KT 33/13 A3012 RMK A01 T03270125  RH  029%=      5-min Rain = 0
KPA1 111850Z 19019KT 33/13 A3012 RMK A01 T03340131  RH  029%=      5-min Rain = 0
KPA1 111851Z 18020KT 34/13 A3012 RMK A01 T03370129  RH  028%=      5-min Rain = 0
KPA1 111852Z 18018KT 34/13 A3012 RMK A01 T03370125  RH  028%=      5-min Rain = 0
KPA1 111853Z 18016G22KT 34/13 A3012 RMK A01 T03360126  RH  028%=      5-min Rain = 0
KPA1 111854Z 17018G24KT 34/13 A3012 RMK A01 T03370127  RH  028%=      5-min Rain = 0
KPA1 111855Z 18018KT 34/13 A3012 RMK A01 T03350127  RH  028%=      5-min Rain = 0
KPA1 111856Z 18018G23KT 34/13 A3012 RMK A01 T03350129  RH  029%=      5-min Rain = 0
KPA1 111857Z 18016KT 33/13 A3012 RMK A01 T03320128  RH  029%=      5-min Rain = 0
KPA1 111858Z 18013KT 33/13 A3013 RMK A01 T03290127  RH  029%=      5-min Rain = 0
KPA1 111859Z 19013KT 33/13 A3012 RMK A01 T03250127  RH  030%=      5-min Rain = 0
KPA1 111900Z 18011KT 33/13 A3012 RMK A01 T03250128  RH  030%=      5-min Rain = 0
KPA1 111901Z 20013KT 33/13 A3012 RMK A01 T03260128  RH  030%=      5-min Rain = 0
KPA1 111902Z 20015KT 33/13 A3012 RMK A01 T03300128  RH  029%=      5-min Rain = 0
KPA1 111903Z 19013KT 33/13 A3012 RMK A01 T03310128  RH  029%=      5-min Rain = 0
KPA1 111904Z 18012KT 33/13 A3012 RMK A01 T03340126  RH  028%=      5-min Rain = 0
KPA1 111905Z 18011KT 33/12 A3012 RMK A01 T03310124  RH  028%=      5-min Rain = 0
KPA1 111906Z 18010KT 33/12 A3012 RMK A01 T03280117  RH  028%=      5-min Rain = 0
KPA1 111907Z 18011G17KT 33/12 A3012 RMK A01 T03270118  RH  028%=      5-min Rain = 0
KPA1 111908Z 18020KT 33/12 A3012 RMK A01 T03290121  RH  028%=      5-min Rain = 0
KPA1 111909Z 18018KT 33/12 A3012 RMK A01 T03290118  RH  028%=      5-min Rain = 0
KPA1 111910Z 18018KT 33/12 A3012 RMK A01 T03290118  RH  028%=      5-min Rain = 0
KPA1 111911Z 19015KT 33/12 A3012 RMK A01 T03310119  RH  027%=      5-min Rain = 0
KPA1 111912Z 20017KT 33/12 A3012 RMK A01 T03330117  RH  027%=      5-min Rain = 0
KPA1 111913Z 20013KT 33/11 A3012 RMK A01 T03310113  RH  026%=      5-min Rain = 0
KPA1 111914Z 18019KT 33/11 A3012 RMK A01 T03300112  RH  026%=      5-min Rain = 0
KPA1 111915Z 17019KT 33/11 A3012 RMK A01 T03300107  RH  026%=      5-min Rain = 0
KPA1 111916Z 17017KT 33/11 A3012 RMK A01 T03320109  RH  026%=      5-min Rain = 0
KPA1 111917Z 17016KT 33/11 A3012 RMK A01 T03320112  RH  026%=      5-min Rain = 0
KPA1 111918Z 18015G20KT 34/12 A3012 RMK A01 T03370116  RH  026%=      5-min Rain = 0
KPA1 111919Z 17013KT 34/11 A3012 RMK A01 T03370110  RH  025%=      5-min Rain = 0
KPA1 111920Z 16018KT 33/11 A3011 RMK A01 T03320110  RH  026%=      5-min Rain = 0
KPA1 111921Z 17018G23KT 33/11 A3011 RMK A01 T03320112  RH  026%=      5-min Rain = 0
KPA1 111922Z 16010KT 33/11 A3011 RMK A01 T03310110  RH  026%=      5-min Rain = 0
KPA1 111923Z 16018KT 33/11 A3011 RMK A01 T03300113  RH  027%=      5-min Rain = 0
KPA1 111924Z 15018KT 33/12 A3011 RMK A01 T03320115  RH  027%=      5-min Rain = 0
KPA1 111925Z 15016KT 33/11 A3011 RMK A01 T03310114  RH  027%=      5-min Rain = 0
KPA1 111926Z 14013KT 33/12 A3011 RMK A01 T03300115  RH  027%=      5-min Rain = 0
KPA1 111927Z 15013G19KT 33/12 A3011 RMK A01 T03300117  RH  027%=      5-min Rain = 0
KPA1 111928Z 16018KT 34/12 A3011 RMK A01 T03350122  RH  028%=      5-min Rain = 0
KPA1 111929Z 16016KT 34/12 A3011 RMK A01 T03400122  RH  027%=      5-min Rain = 0
KPA1 111930Z 15021KT 34/12 A3011 RMK A01 T03410119  RH  026%=      5-min Rain = 0
KPA1 111931Z 15020KT 34/12 A3011 RMK A01 T03380119  RH  027%=      5-min Rain = 0
KPA1 111932Z 16021G27KT 34/12 A3011 RMK A01 T03360118  RH  027%=      5-min Rain = 0
KPA1 111933Z 18015G21KT 34/12 A3011 RMK A01 T03370120  RH  027%=      5-min Rain = 0
KPA1 111934Z 18019KT 34/12 A3011 RMK A01 T03410123  RH  027%=      5-min Rain = 0
KPA1 111935Z 18019KT 34/12 A3011 RMK A01 T03400120  RH  026%=      5-min Rain = 0
KPA1 111936Z 18016G21KT 34/12 A3011 RMK A01 T03360119  RH  027%=      5-min Rain = 0
KPA1 111937Z 17021KT 34/12 A3011 RMK A01 T03360119  RH  027%=      5-min Rain = 0
KPA1 111938Z 17021G26KT 34/12 A3011 RMK A01 T03370116  RH  026%=      5-min Rain = 0
KPA1 111939Z 18013G21KT 33/11 A3011 RMK A01 T03340112  RH  026%=      5-min Rain = 0
KPA1 111940Z 17011KT 33/11 A301 RMK A01 T03290114  RH  027%=      5-min Rain = 0
KPA1 111941Z 16013KT 33/12 A301 RMK A01 T03290115  RH  027%=      5-min Rain = 0
KPA1 111942Z 15014KT 33/12 A301 RMK A01 T03330119  RH  027%=      5-min Rain = 0
KPA1 111943Z 17022KT 33/12 A301 RMK A01 T03320122  RH  028%=      5-min Rain = 0
KPA1 111944Z 16020G25KT 33/12 A301 RMK A01 T03300116  RH  027%=      5-min Rain = 0
KPA1 111945Z 16019KT 33/12 A301 RMK A01 T03280119  RH  028%=      5-min Rain = 0
KPA1 111946Z 17021KT 33/12 A301 RMK A01 T03320119  RH  027%=      5-min Rain = 0
KPA1 111947Z 17022KT 34/12 A301 RMK A01 T03350121  RH  027%=      5-min Rain = 0
KPA1 111948Z 16019KT 33/12 A301 RMK A01 T03340121  RH  027%=      5-min Rain = 0
KPA1 111949Z 16018KT 33/12 A301 RMK A01 T03270117  RH  028%=      5-min Rain = 0
KPA1 111950Z 15016KT 32/12 A301 RMK A01 T03220119  RH  029%=      5-min Rain = 0
KPA1 111951Z 16018KT 32/12 A301 RMK A01 T03200120  RH  029%=      5-min Rain = 0
KPA1 111952Z 16020KT 32/13 A301 RMK A01 T03210125  RH  030%=      5-min Rain = 0
KPA1 111953Z 17020G32KT 33/13 A301 RMK A01 T03300126  RH  029%=      5-min Rain = 0
KPA1 111954Z 17015G20KT 34/12 A301 RMK A01 T03360123  RH  027%=      5-min Rain = 0
KPA1 111955Z 16014G19KT 34/13 A301 RMK A01 T03370126  RH  028%=      5-min Rain = 0
KPA1 111956Z 15021KT 34/13 A301 RMK A01 T03410127  RH  028%=      5-min Rain = 0
KPA1 111957Z 17021G28KT 34/12 A3009 RMK A01 T03370122  RH  027%=      5-min Rain = 0
KPA1 111958Z 15021KT 34/13 A301 RMK A01 T03370125  RH  028%=      5-min Rain = 0
KPA1 111959Z 14017KT 34/12 A301 RMK A01 T03360122  RH  027%=      5-min Rain = 0
KPA1 112000Z 15014KT 33/12 A301 RMK A01 T03330118  RH  027%=      5-min Rain = 0
KPA1 112001Z 15019G25KT 33/12 A301 RMK A01 T03320122  RH  028%=      5-min Rain = 0
KPA1 112002Z 18017KT 34/12 A301 RMK A01 T03350121  RH  027%=      5-min Rain = 0
KPA1 112003Z 19018KT 34/12 A301 RMK A01 T03360118  RH  027%=      5-min Rain = 0
KPA1 112004Z 18020KT 34/12 A301 RMK A01 T03350116  RH  026%=      5-min Rain = 0
KPA1 112005Z 18019KT 33/12 A301 RMK A01 T03340118  RH  027%=      5-min Rain = 0
KPA1 112006Z 19019G24KT 33/12 A301 RMK A01 T03330119  RH  027%=      5-min Rain = 0
KPA1 112007Z 18018KT 33/12 A301 RMK A01 T03330123  RH  028%=      5-min Rain = 0
KPA1 112008Z 19018KT 33/12 A301 RMK A01 T03340119  RH  027%=      5-min Rain = 0
KPA1 112009Z 19013KT 33/12 A301 RMK A01 T03320118  RH  027%=      5-min Rain = 0
KPA1 112010Z 19017KT 34/12 A301 RMK A01 T03350122  RH  028%=      5-min Rain = 0
KPA1 112011Z 17019KT 34/12 A301 RMK A01 T03380119  RH  027%=      5-min Rain = 0
KPA1 112012Z 17019KT 34/12 A301 RMK A01 T03390116  RH  026%=      5-min Rain = 0
KPA1 112013Z 17016KT 34/11 A301 RMK A01 T03360112  RH  026%=      5-min Rain = 0
KPA1 112014Z 16010KT 33/11 A301 RMK A01 T03320108  RH  026%=      5-min Rain = 0
KPA1 112015Z 18014KT 33/11 A301 RMK A01 T03310113  RH  026%=      5-min Rain = 0
KPA1 112016Z 19014KT 33/12 A301 RMK A01 T03320118  RH  027%=      5-min Rain = 0
KPA1 112017Z 19012KT 33/12 A301 RMK A01 T03330121  RH  027%=      5-min Rain = 0
KPA1 112018Z 17012KT 33/12 A301 RMK A01 T03310119  RH  027%=      5-min Rain = 0
KPA1 112019Z 19013KT 33/12 A301 RMK A01 T03300119  RH  028%=      5-min Rain = 0
KPA1 112020Z 17018G23KT 33/12 A301 RMK A01 T03310124  RH  028%=      5-min Rain = 0
KPA1 112021Z 16020KT 33/12 A301 RMK A01 T03340122  RH  028%=      5-min Rain = 0
KPA1 112022Z 15018KT 34/12 A301 RMK A01 T03350121  RH  027%=      5-min Rain = 0
KPA1 112023Z 17015KT 33/12 A301 RMK A01 T03340120  RH  027%=      5-min Rain = 0
KPA1 112024Z 18012KT 33/12 A3009 RMK A01 T03330119  RH  027%=      5-min Rain = 0
KPA1 112025Z 16010KT 34/12 A3009 RMK A01 T03350123  RH  028%=      5-min Rain = 0
KPA1 112026Z 16013KT 34/13 A3009 RMK A01 T03380127  RH  028%=      5-min Rain = 0
KPA1 112027Z 17017KT 34/12 A3009 RMK A01 T03390123  RH  027%=      5-min Rain = 0
KPA1 112028Z 18019G25KT 34/12 A3009 RMK A01 T03400118  RH  026%=      5-min Rain = 0
KPA1 112029Z 18021KT 34/12 A3009 RMK A01 T03400119  RH  026%=      5-min Rain = 0
KPA1 112030Z 18021KT 34/12 A3009 RMK A01 T03400118  RH  026%=      5-min Rain = 0
KPA1 112031Z 19015KT 34/12 A3009 RMK A01 T03360117  RH  026%=      5-min Rain = 0
KPA1 112032Z 17014KT 34/12 A3009 RMK A01 T03350117  RH  027%=      5-min Rain = 0
KPA1 112033Z 16019G24KT 34/11 A3009 RMK A01 T03370114  RH  026%=      5-min Rain = 0
KPA1 112034Z 17014KT 34/11 A3009 RMK A01 T03380109  RH  025%=      5-min Rain = 0
KPA1 112035Z 18020KT 34/11 A3008 RMK A01 T03370111  RH  025%=      5-min Rain = 0
KPA1 112036Z 18018G24KT 34/12 A3009 RMK A01 T03380115  RH  026%=      5-min Rain = 0
KPA1 112037Z 19013G18KT 34/12 A3009 RMK A01 T03380117  RH  026%=      5-min Rain = 0
KPA1 112038Z 19018KT 34/12 A3008 RMK A01 T03390119  RH  026%=      5-min Rain = 0
KPA1 112039Z 19014KT 34/12 A3009 RMK A01 T03350116  RH  026%=      5-min Rain = 0
KPA1 112040Z 18013G20KT 34/12 A3009 RMK A01 T03350117  RH  027%=      5-min Rain = 0
KPA1 112041Z 18015KT 34/12 A3009 RMK A01 T03390122  RH  027%=      5-min Rain = 0
KPA1 112042Z 18016G22KT 35/13 A3008 RMK A01 T03450126  RH  027%=      5-min Rain = 0
KPA1 112043Z 18017KT 35/13 A3008 RMK A01 T03490125  RH  026%=      5-min Rain = 0
KPA1 112044Z 19017KT 35/12 A3008 RMK A01 T03460121  RH  026%=      5-min Rain = 0
KPA1 112045Z 18016KT 34/12 A3008 RMK A01 T03410123  RH  027%=      5-min Rain = 0
KPA1 112046Z 17013KT 34/12 A3008 RMK A01 T03390123  RH  027%=      5-min Rain = 0
KPA1 112047Z 15018G24KT 34/12 A3008 RMK A01 T03380118  RH  026%=      5-min Rain = 0
KPA1 112048Z 15019KT 34/12 A3008 RMK A01 T03380119  RH  026%=      5-min Rain = 0
KPA1 112049Z 14016KT 34/12 A3008 RMK A01 T03360116  RH  026%=      5-min Rain = 0
KPA1 112050Z 14016KT 33/12 A3008 RMK A01 T03340118  RH  027%=      5-min Rain = 0
KPA1 112051Z 14016KT 33/12 A3008 RMK A01 T03340118  RH  027%=      5-min Rain = 0
KPA1 112052Z 14013KT 33/12 A3008 RMK A01 T03340118  RH  027%=      5-min Rain = 0
KPA1 112053Z 15012KT 33/12 A3008 RMK A01 T03330119  RH  027%=      5-min Rain = 0
KPA1 112054Z 16012KT 33/12 A3008 RMK A01 T03340121  RH  027%=      5-min Rain = 0
KPA1 112055Z 17013KT 34/13 A3008 RMK A01 T03350125  RH  028%=      5-min Rain = 0
KPA1 112056Z 18012KT 34/13 A3008 RMK A01 T03390127  RH  028%=      5-min Rain = 0
KPA1 112057Z 18015G20KT 34/13 A3008 RMK A01 T03410125  RH  027%=      5-min Rain = 0
KPA1 112058Z 18015G20KT 34/13 A3008 RMK A01 T03420125  RH  027%=      5-min Rain = 0
KPA1 112059Z 16016G21KT 34/12 A3008 RMK A01 T03410124  RH  027%=      5-min Rain = 0
KPA1 112100Z 16016KT 34/13 A3008 RMK A01 T03430125  RH  027%=      5-min Rain = 0
KPA1 112101Z 16018KT 34/12 A3007 RMK A01 T03420124  RH  027%=      5-min Rain = 0
KPA1 112102Z 17015KT 34/12 A3007 RMK A01 T03390122  RH  027%=      5-min Rain = 0
KPA1 112103Z 16017KT 34/12 A3007 RMK A01 T03370123  RH  027%=      5-min Rain = 0
KPA1 112104Z 17015KT 34/12 A3007 RMK A01 T03380124  RH  027%=      5-min Rain = 0
KPA1 112105Z 16018G24KT 34/13 A3007 RMK A01 T03400126  RH  027%=      5-min Rain = 0
KPA1 112106Z 17022KT 34/13 A3007 RMK A01 T03420125  RH  027%=      5-min Rain = 0
KPA1 112107Z 17019KT 34/12 A3007 RMK A01 T03420121  RH  026%=      5-min Rain = 0
KPA1 112108Z 16016KT 34/12 A3007 RMK A01 T03370118  RH  026%=      5-min Rain = 0
KPA1 112109Z 16018G23KT 33/12 A3007 RMK A01 T03330118  RH  027%=      5-min Rain = 0
KPA1 112110Z 16017KT 33/12 A3007 RMK A01 T03340119  RH  027%=      5-min Rain = 0
KPA1 112111Z 14017KT 33/12 A3007 RMK A01 T03330122  RH  028%=      5-min Rain = 0
KPA1 112112Z 14014G21KT 33/12 A3007 RMK A01 T03330123  RH  028%=      5-min Rain = 0
KPA1 112113Z 16020G25KT 33/13 A3007 RMK A01 T03310125  RH  029%=      5-min Rain = 0
KPA1 112114Z 16019KT 33/12 A3007 RMK A01 T03290122  RH  028%=      5-min Rain = 0
KPA1 112115Z 16015G20KT 33/12 A3007 RMK A01 T03290123  RH  029%=      5-min Rain = 0
KPA1 112116Z 16016KT 33/13 A3007 RMK A01 T03330127  RH  029%=      5-min Rain = 0
KPA1 112117Z 15016G23KT 33/13 A3007 RMK A01 T03340126  RH  028%=      5-min Rain = 0
KPA1 112118Z 15016KT 33/13 A3007 RMK A01 T03330128  RH  029%=      5-min Rain = 0
KPA1 112119Z 15015G20KT 34/13 A3007 RMK A01 T03360133  RH  029%=      5-min Rain = 0
KPA1 112120Z 16017KT 34/13 A3007 RMK A01 T03380129  RH  028%=      5-min Rain = 0
KPA1 112121Z 16016KT 34/13 A3007 RMK A01 T03380130  RH  028%=      5-min Rain = 0
KPA1 112122Z 16017KT 34/13 A3006 RMK A01 T03400130  RH  028%=      5-min Rain = 0
KPA1 112123Z 16019G24KT 34/13 A3006 RMK A01 T03390129  RH  028%=      5-min Rain = 0
KPA1 112124Z 17015KT 34/13 A3006 RMK A01 T03350126  RH  028%=      5-min Rain = 0
KPA1 112125Z 15019KT 34/13 A3006 RMK A01 T03350128  RH  029%=      5-min Rain = 0
KPA1 112126Z 15018KT 34/13 A3006 RMK A01 T03350129  RH  029%=      5-min Rain = 0
KPA1 112127Z 15016KT 34/13 A3006 RMK A01 T03370132  RH  029%=      5-min Rain = 0
KPA1 112128Z 16017KT 34/13 A3006 RMK A01 T03410130  RH  028%=      5-min Rain = 0
KPA1 112129Z 16015KT 34/13 A3006 RMK A01 T03400126  RH  027%=      5-min Rain = 0
KPA1 112130Z 17017G23KT 34/13 A3006 RMK A01 T03410129  RH  028%=      5-min Rain = 0
KPA1 112131Z 18020KT 35/13 A3006 RMK A01 T03450127  RH  027%=      5-min Rain = 0
KPA1 112132Z 18018KT 34/12 A3006 RMK A01 T03430120  RH  026%=      5-min Rain = 0
KPA1 112133Z 18015KT 34/12 A3006 RMK A01 T03400122  RH  027%=      5-min Rain = 0
KPA1 112134Z 19016KT 34/13 A3006 RMK A01 T03400126  RH  027%=      5-min Rain = 0
KPA1 112135Z 18017KT 34/13 A3006 RMK A01 T03380127  RH  028%=      5-min Rain = 0
KPA1 112136Z 18013KT 33/12 A3006 RMK A01 T03330124  RH  028%=      5-min Rain = 0
KPA1 112137Z 18017KT 33/13 A3006 RMK A01 T03310125  RH  029%=      5-min Rain = 0
KPA1 112138Z 17017KT 33/13 A3006 RMK A01 T03320126  RH  029%=      5-min Rain = 0
KPA1 112139Z 16015KT 33/13 A3006 RMK A01 T03340129  RH  029%=      5-min Rain = 0
KPA1 112140Z 15019G25KT 34/13 A3006 RMK A01 T03370130  RH  029%=      5-min Rain = 0
KPA1 112141Z 16019KT 34/13 A3006 RMK A01 T03390129  RH  028%=      5-min Rain = 0
KPA1 112142Z 16018KT 34/13 A3006 RMK A01 T03410130  RH  028%=      5-min Rain = 0
KPA1 112143Z 16020G25KT 34/13 A3006 RMK A01 T03430129  RH  027%=      5-min Rain = 0
KPA1 112144Z 16020KT 34/13 A3006 RMK A01 T03420127  RH  027%=      5-min Rain = 0
KPA1 112145Z 14018KT 34/13 A3006 RMK A01 T03360127  RH  028%=      5-min Rain = 0
KPA1 112146Z 14018KT 34/13 A3006 RMK A01 T03350130  RH  029%=      5-min Rain = 0
KPA1 112147Z 15017KT 34/13 A3005 RMK A01 T03350131  RH  029%=      5-min Rain = 0
KPA1 112148Z 15018KT 34/13 A3005 RMK A01 T03370131  RH  029%=      5-min Rain = 0
KPA1 112149Z 15018KT 34/13 A3005 RMK A01 T03380131  RH  028%=      5-min Rain = 0
KPA1 112150Z 15017KT 34/13 A3005 RMK A01 T03370133  RH  029%=      5-min Rain = 0
KPA1 112151Z 16021KT 33/13 A3005 RMK A01 T03310129  RH  029%=      5-min Rain = 0
KPA1 112152Z 15018KT 33/13 A3005 RMK A01 T03260130  RH  030%=      5-min Rain = 0
KPA1 112153Z 15018KT 32/13 A3005 RMK A01 T03230130  RH  031%=      5-min Rain = 0
KPA1 112154Z 15019KT 32/13 A3005 RMK A01 T03210129  RH  031%=      5-min Rain = 0
KPA1 112155Z 17018KT 32/13 A3005 RMK A01 T03200129  RH  031%=      5-min Rain = 0
KPA1 112156Z 17018KT 32/13 A3005 RMK A01 T03200128  RH  031%=      5-min Rain = 0
KPA1 112157Z 16021KT 32/13 A3005 RMK A01 T03200129  RH  031%=      5-min Rain = 0
KPA1 112158Z 15017KT 32/13 A3005 RMK A01 T03210129  RH  031%=      5-min Rain = 0
KPA1 112159Z 15017KT 32/13 A3005 RMK A01 T03230131  RH  031%=      5-min Rain = 0
KPA1 112200Z 16018KT 33/13 A3005 RMK A01 T03270131  RH  030%=      5-min Rain = 0
KPA1 112201Z 16019KT 33/13 A3005 RMK A01 T03290131  RH  030%=      5-min Rain = 0
KPA1 112202Z 15017KT 33/13 A3005 RMK A01 T03290132  RH  030%=      5-min Rain = 0
KPA1 112203Z 16018G23KT 33/13 A3005 RMK A01 T03330134  RH  030%=      5-min Rain = 0
KPA1 112204Z 16020KT 34/13 A3005 RMK A01 T03350133  RH  030%=      5-min Rain = 0
KPA1 112205Z 16020KT 34/13 A3005 RMK A01 T03350130  RH  029%=      5-min Rain = 0
KPA1 112206Z 16018KT 34/13 A3005 RMK A01 T03360130  RH  029%=      5-min Rain = 0
KPA1 112207Z 17013KT 34/13 A3005 RMK A01 T03350129  RH  029%=      5-min Rain = 0
KPA1 112208Z 16015KT 34/13 A3005 RMK A01 T03360131  RH  029%=      5-min Rain = 0
KPA1 112209Z 15012KT 34/13 A3005 RMK A01 T03370131  RH  029%=      5-min Rain = 0
KPA1 112210Z 16014KT 34/13 A3005 RMK A01 T03360132  RH  029%=      5-min Rain = 0
KPA1 112211Z 17016KT 34/13 A3005 RMK A01 T03350131  RH  029%=      5-min Rain = 0
KPA1 112212Z 15015KT 33/13 A3005 RMK A01 T03290129  RH  030%=      5-min Rain = 0
KPA1 112213Z 15014KT 32/13 A3005 RMK A01 T03240127  RH  030%=      5-min Rain = 0
KPA1 112214Z 15015G20KT 32/13 A3005 RMK A01 T03230130  RH  031%=      5-min Rain = 0
KPA1 112215Z 17017G22KT 32/13 A3005 RMK A01 T03220132  RH  031%=      5-min Rain = 0
KPA1 112216Z 17018KT 32/13 A3005 RMK A01 T03220129  RH  031%=      5-min Rain = 0
KPA1 112217Z 16017KT 32/13 A3005 RMK A01 T03210130  RH  031%=      5-min Rain = 0
KPA1 112218Z 17016KT 32/13 A3005 RMK A01 T03210130  RH  031%=      5-min Rain = 0
KPA1 112219Z 16013KT 32/13 A3005 RMK A01 T03230130  RH  031%=      5-min Rain = 0
KPA1 112220Z 16014G20KT 32/13 A3005 RMK A01 T03240129  RH  031%=      5-min Rain = 0
KPA1 112221Z 17015KT 32/13 A3005 RMK A01 T03230127  RH  030%=      5-min Rain = 0
KPA1 112222Z 17013KT 32/13 A3005 RMK A01 T03230129  RH  031%=      5-min Rain = 0
KPA1 112223Z 15016KT 33/13 A3005 RMK A01 T03270131  RH  030%=      5-min Rain = 0
KPA1 112224Z 17020KT 33/13 A3005 RMK A01 T03300133  RH  030%=      5-min Rain = 0
KPA1 112225Z 17021KT 33/13 A3005 RMK A01 T03280130  RH  030%=      5-min Rain = 0
KPA1 112226Z 17017KT 32/13 A3005 RMK A01 T03230127  RH  030%=      5-min Rain = 0
KPA1 112227Z 16017KT 32/13 A3005 RMK A01 T03200128  RH  031%=      5-min Rain = 0
KPA1 112228Z 16017KT 32/13 A3005 RMK A01 T03200127  RH  031%=      5-min Rain = 0
KPA1 112229Z 16017KT 32/13 A3005 RMK A01 T03200128  RH  031%=      5-min Rain = 0
KPA1 112230Z 16015KT 32/13 A3005 RMK A01 T03200128  RH  031%=      5-min Rain = 0
KPA1 112231Z 16015KT 32/13 A3005 RMK A01 T03200127  RH  031%=      5-min Rain = 0
KPA1 112232Z 17014KT 32/13 A3005 RMK A01 T03210128  RH  031%=      5-min Rain = 0
KPA1 112233Z 17015KT 32/13 A3005 RMK A01 T03240131  RH  031%=      5-min Rain = 0
KPA1 112234Z 17014G19KT 33/13 A3004 RMK A01 T03300132  RH  030%=      5-min Rain = 0
KPA1 112235Z 16020KT 34/13 A3004 RMK A01 T03350133  RH  029%=      5-min Rain = 0
KPA1 112236Z 15015KT 34/14 A3004 RMK A01 T03360135  RH  030%=      5-min Rain = 0
KPA1 112237Z 17017G22KT 34/14 A3005 RMK A01 T03380137  RH  030%=      5-min Rain = 0
KPA1 112238Z 16020KT 34/13 A3005 RMK A01 T03360131  RH  029%=      5-min Rain = 0
KPA1 112239Z 17017KT 33/13 A3005 RMK A01 T03280129  RH  030%=      5-min Rain = 0
KPA1 112240Z 17015KT 32/13 A3005 RMK A01 T03240128  RH  030%=      5-min Rain = 0
KPA1 112241Z 16017KT 32/13 A3005 RMK A01 T03210129  RH  031%=      5-min Rain = 0
KPA1 112242Z 16015KT 32/13 A3005 RMK A01 T03190129  RH  031%=      5-min Rain = 0
KPA1 112243Z 15013KT 32/13 A3005 RMK A01 T03180134  RH  033%=      5-min Rain = 0
KPA1 112244Z 15015KT 32/13 A3005 RMK A01 T03180133  RH  033%=      5-min Rain = 0
KPA1 112245Z 16016KT 32/13 A3005 RMK A01 T03170131  RH  032%=      5-min Rain = 0
KPA1 112246Z 16019KT 32/13 A3004 RMK A01 T03170131  RH  032%=      5-min Rain = 0
KPA1 112247Z 15017KT 32/13 A3004 RMK A01 T03180132  RH  032%=      5-min Rain = 0
KPA1 112248Z 16016KT 32/14 A3004 RMK A01 T03230135  RH  032%=      5-min Rain = 0
KPA1 112249Z 15015KT 33/14 A3004 RMK A01 T03270137  RH  032%=      5-min Rain = 0
KPA1 112250Z 14016KT 33/14 A3004 RMK A01 T03290137  RH  031%=      5-min Rain = 0
KPA1 112251Z 14017KT 33/14 A3004 RMK A01 T03290136  RH  031%=      5-min Rain = 0
KPA1 112252Z 14014KT 33/14 A3004 RMK A01 T03280138  RH  032%=      5-min Rain = 0
KPA1 112253Z 14015G22KT 33/14 A3004 RMK A01 T03300140  RH  032%=      5-min Rain = 0
KPA1 112254Z 16019KT 33/14 A3004 RMK A01 T03290136  RH  031%=      5-min Rain = 0
KPA1 112255Z 16017KT 33/13 A3004 RMK A01 T03280134  RH  031%=      5-min Rain = 0
KPA1 112256Z 16018KT 33/13 A3004 RMK A01 T03290132  RH  030%=      5-min Rain = 0
KPA1 112257Z 16017KT 33/13 A3005 RMK A01 T03290131  RH  030%=      5-min Rain = 0
KPA1 112258Z 16015KT 32/13 A3005 RMK A01 T03240129  RH  031%=      5-min Rain = 0
KPA1 112259Z 16014KT 32/13 A3005 RMK A01 T03210130  RH  031%=      5-min Rain = 0
KPA1 112300Z 16015KT 32/13 A3005 RMK A01 T03190130  RH  032%=      5-min Rain = 0
KPA1 112301Z 16015KT 32/13 A3005 RMK A01 T03190130  RH  032%=      5-min Rain = 0
KPA1 112302Z 16015KT 32/13 A3005 RMK A01 T03180128  RH  031%=      5-min Rain = 0
KPA1 112303Z 17014KT 32/13 A3005 RMK A01 T03170129  RH  032%=      5-min Rain = 0
KPA1 112304Z 17017KT 32/13 A3005 RMK A01 T03170130  RH  032%=      5-min Rain = 0
KPA1 112305Z 17016KT 32/13 A3005 RMK A01 T03170131  RH  032%=      5-min Rain = 0
KPA1 112306Z 16017KT 32/13 A3005 RMK A01 T03170131  RH  032%=      5-min Rain = 0
KPA1 112307Z 16016KT 32/13 A3005 RMK A01 T03170131  RH  032%=      5-min Rain = 0
KPA1 112308Z 16015KT 32/13 A3004 RMK A01 T03170132  RH  032%=      5-min Rain = 0
KPA1 112309Z 15014KT 32/13 A3004 RMK A01 T03160133  RH  033%=      5-min Rain = 0
KPA1 112310Z 15017KT 31/13 A3004 RMK A01 T03140133  RH  033%=      5-min Rain = 0
KPA1 112311Z 15015KT 31/13 A3004 RMK A01 T03140130  RH  033%=      5-min Rain = 0
KPA1 112312Z 15014KT 31/13 A3004 RMK A01 T03140131  RH  033%=      5-min Rain = 0
KPA1 112313Z 16016KT 31/13 A3004 RMK A01 T03130132  RH  033%=      5-min Rain = 0
KPA1 112314Z 16015KT 31/13 A3005 RMK A01 T03130132  RH  033%=      5-min Rain = 0
KPA1 112315Z 16013KT 31/13 A3005 RMK A01 T03130133  RH  033%=      5-min Rain = 0
KPA1 112316Z 15014KT 31/13 A3005 RMK A01 T03140132  RH  033%=      5-min Rain = 0
KPA1 112317Z 16016KT 32/13 A3004 RMK A01 T03190132  RH  032%=      5-min Rain = 0
KPA1 112318Z 16016KT 32/13 A3004 RMK A01 T03220132  RH  032%=      5-min Rain = 0
KPA1 112319Z 16017KT 32/13 A3004 RMK A01 T03220133  RH  032%=      5-min Rain = 0
KPA1 112320Z 16016KT 32/13 A3004 RMK A01 T03240131  RH  031%=      5-min Rain = 0
KPA1 112321Z 16015KT 33/13 A3004 RMK A01 T03260132  RH  031%=      5-min Rain = 0
KPA1 112322Z 15015KT 33/13 A3004 RMK A01 T03280133  RH  031%=      5-min Rain = 0
KPA1 112323Z 15015KT 33/13 A3004 RMK A01 T03300134  RH  031%=      5-min Rain = 0
KPA1 112324Z 15014KT 33/13 A3004 RMK A01 T03290133  RH  030%=      5-min Rain = 0
KPA1 112325Z 16014KT 33/13 A3004 RMK A01 T03260133  RH  031%=      5-min Rain = 0
KPA1 112326Z 15014G20KT 32/13 A3004 RMK A01 T03240133  RH  031%=      5-min Rain = 0
KPA1 112327Z 16019KT 33/14 A3004 RMK A01 T03260135  RH  032%=      5-min Rain = 0
KPA1 112328Z 16018KT 33/14 A3004 RMK A01 T03280136  RH  031%=      5-min Rain = 0
KPA1 112329Z 16018KT 33/14 A3004 RMK A01 T03280136  RH  031%=      5-min Rain = 0
KPA1 112330Z 16018KT 33/14 A3004 RMK A01 T03270137  RH  032%=      5-min Rain = 0
KPA1 112331Z 15017G22KT 33/14 A3004 RMK A01 T03260139  RH  032%=      5-min Rain = 0
KPA1 112332Z 15019KT 33/14 A3004 RMK A01 T03260139  RH  032%=      5-min Rain = 0
KPA1 112333Z 16019KT 33/14 A3004 RMK A01 T03260137  RH  032%=      5-min Rain = 0
KPA1 112334Z 15020KT 33/14 A3004 RMK A01 T03270136  RH  031%=      5-min Rain = 0
KPA1 112335Z 15020KT 33/14 A3004 RMK A01 T03250135  RH  032%=      5-min Rain = 0
KPA1 112336Z 16020KT 32/13 A3004 RMK A01 T03210133  RH  032%=      5-min Rain = 0
KPA1 112337Z 16016KT 32/13 A3004 RMK A01 T03190133  RH  032%=      5-min Rain = 0
KPA1 112338Z 16015KT 32/13 A3004 RMK A01 T03180133  RH  033%=      5-min Rain = 0
KPA1 112339Z 16014KT 32/13 A3004 RMK A01 T03170134  RH  033%=      5-min Rain = 0
KPA1 112340Z 17013KT 32/13 A3004 RMK A01 T03170134  RH  033%=      5-min Rain = 0
KPA1 112341Z 17012KT 32/13 A3004 RMK A01 T03160134  RH  033%=      5-min Rain = 0
KPA1 112342Z 19012KT 32/14 A3004 RMK A01 T03160137  RH  034%=      5-min Rain = 0
KPA1 112343Z 17017KT 32/14 A3004 RMK A01 T03170137  RH  033%=      5-min Rain = 0
KPA1 112344Z 18015G20KT 32/14 A3004 RMK A01 T03170137  RH  034%=      5-min Rain = 0
KPA1 112345Z 18012KT 32/14 A3004 RMK A01 T03170139  RH  034%=      5-min Rain = 0
KPA1 112346Z 18016KT 32/14 A3004 RMK A01 T03180140  RH  034%=      5-min Rain = 0
KPA1 112347Z 18019KT 32/14 A3004 RMK A01 T03220140  RH  033%=      5-min Rain = 0
KPA1 112348Z 18016KT 32/14 A3004 RMK A01 T03230138  RH  032%=      5-min Rain = 0
KPA1 112349Z 18015KT 32/14 A3005 RMK A01 T03220138  RH  033%=      5-min Rain = 0
KPA1 112350Z 18018KT 32/14 A3005 RMK A01 T03210139  RH  033%=      5-min Rain = 0
KPA1 112351Z 18019KT 32/14 A3005 RMK A01 T03200139  RH  033%=      5-min Rain = 0
KPA1 112352Z 17015KT 32/14 A3005 RMK A01 T03190140  RH  034%=      5-min Rain = 0
KPA1 112353Z 17016KT 32/14 A3005 RMK A01 T03190138  RH  033%=      5-min Rain = 0
KPA1 112354Z 17017KT 32/14 A3005 RMK A01 T03180138  RH  033%=      5-min Rain = 0
KPA1 112355Z 17016KT 32/14 A3005 RMK A01 T03170139  RH  034%=      5-min Rain = 0
KPA1 112356Z 18014KT 32/14 A3005 RMK A01 T03170139  RH  034%=      5-min Rain = 0
KPA1 112357Z 17016KT 32/14 A3005 RMK A01 T03170138  RH  034%=      5-min Rain = 0
KPA1 112358Z 17015KT 32/14 A3005 RMK A01 T03160136  RH  033%=      5-min Rain = 0
KPA1 112359Z 18013KT 32/14 A3005 RMK A01 T03160136  RH  033%=      5-min Rain = 0
KPA1 120000Z 18013KT 32/14 A3005 RMK A01 T03160137  RH  034%=      5-min Rain = 0
KPA1 120001Z 18015KT 32/14 A3005 RMK A01 T03160136  RH  033%=      5-min Rain = 0
KPA1 120002Z 18015G20KT 32/13 A3005 RMK A01 T03160134  RH  033%=      5-min Rain = 0
KPA1 120003Z 19012KT 32/14 A3005 RMK A01 T03160137  RH  034%=      5-min Rain = 0
KPA1 120004Z 19014KT 32/14 A3005 RMK A01 T03150139  RH  034%=      5-min Rain = 0
KPA1 120005Z 18014KT 31/14 A3005 RMK A01 T03140137  RH  034%=      5-min Rain = 0
KPA1 120006Z 18012KT 31/14 A3005 RMK A01 T03130136  RH  034%=      5-min Rain = 0
KPA1 120007Z 17016KT 31/14 A3005 RMK A01 T03130137  RH  034%=      5-min Rain = 0
KPA1 120008Z 15017KT 31/14 A3005 RMK A01 T03140136  RH  034%=      5-min Rain = 0
KPA1 120009Z 15017KT 32/14 A3005 RMK A01 T03160136  RH  033%=      5-min Rain = 0
KPA1 120010Z 17014KT 32/14 A3005 RMK A01 T03180138  RH  034%=      5-min Rain = 0
KPA1 120011Z 17014KT 32/14 A3005 RMK A01 T03200138  RH  033%=      5-min Rain = 0
KPA1 120012Z 17013KT 32/14 A3005 RMK A01 T03200139  RH  033%=      5-min Rain = 0
KPA1 120013Z 16015KT 32/14 A3005 RMK A01 T03210138  RH  033%=      5-min Rain = 0
KPA1 120014Z 15015KT 32/14 A3005 RMK A01 T03200137  RH  033%=      5-min Rain = 0
KPA1 120015Z 15013KT 32/14 A3005 RMK A01 T03170140  RH  034%=      5-min Rain = 0
KPA1 120016Z 15014KT 31/14 A3005 RMK A01 T03140138  RH  034%=      5-min Rain = 0
KPA1 120017Z 15012KT 31/14 A3005 RMK A01 T03120138  RH  035%=      5-min Rain = 0
KPA1 120018Z 15016KT 31/14 A3005 RMK A01 T03110138  RH  035%=      5-min Rain = 0
KPA1 120019Z 15014KT 31/14 A3005 RMK A01 T03090137  RH  035%=      5-min Rain = 0
KPA1 120020Z 14016KT 31/14 A3005 RMK A01 T03070136  RH  035%=      5-min Rain = 0
KPA1 120021Z 15015KT 31/14 A3006 RMK A01 T03060135  RH  035%=      5-min Rain = 0
KPA1 120022Z 14014KT 31/13 A3006 RMK A01 T03050134  RH  035%=      5-min Rain = 0
KPA1 120023Z 15014KT 31/13 A3006 RMK A01 T03050134  RH  035%=      5-min Rain = 0
KPA1 120024Z 15013KT 30/14 A3006 RMK A01 T03040135  RH  035%=      5-min Rain = 0
KPA1 120025Z 14012KT 30/14 A3006 RMK A01 T03040135  RH  036%=      5-min Rain = 0
KPA1 120026Z 15013G18KT 30/14 A3006 RMK A01 T03030135  RH  036%=      5-min Rain = 0
KPA1 120027Z 15012KT 30/14 A3006 RMK A01 T03030135  RH  036%=      5-min Rain = 0
KPA1 120028Z 15013KT 30/14 A3006 RMK A01 T03030135  RH  036%=      5-min Rain = 0
KPA1 120029Z 14013KT 30/13 A3006 RMK A01 T03030134  RH  036%=      5-min Rain = 0
KPA1 120030Z 15011KT 30/14 A3006 RMK A01 T03030135  RH  036%=      5-min Rain = 0
KPA1 120031Z 15013KT 30/14 A3006 RMK A01 T03030135  RH  036%=      5-min Rain = 0
KPA1 120032Z 14015KT 30/13 A3006 RMK A01 T03030134  RH  036%=      5-min Rain = 0
KPA1 120033Z 14016KT 30/13 A3006 RMK A01 T03030133  RH  035%=      5-min Rain = 0
KPA1 120034Z 14015KT 31/13 A3006 RMK A01 T03050133  RH  035%=      5-min Rain = 0
KPA1 120035Z 14014KT 31/13 A3006 RMK A01 T03060134  RH  035%=      5-min Rain = 0
KPA1 120036Z 15014KT 31/13 A3006 RMK A01 T03050133  RH  035%=      5-min Rain = 0
KPA1 120037Z 15011KT 31/14 A3006 RMK A01 T03050135  RH  035%=      5-min Rain = 0
KPA1 120038Z 15012KT 30/13 A3006 RMK A01 T03040134  RH  035%=      5-min Rain = 0
KPA1 120039Z 15013KT 30/13 A3006 RMK A01 T03040134  RH  035%=      5-min Rain = 0
KPA1 120040Z 15012KT 30/13 A3006 RMK A01 T03030134  RH  036%=      5-min Rain = 0
KPA1 120041Z 15013KT 30/13 A3006 RMK A01 T03020134  RH  036%=      5-min Rain = 0
KPA1 120042Z 15012KT 30/13 A3006 RMK A01 T03000134  RH  036%=      5-min Rain = 0
KPA1 120043Z 15012KT 30/14 A3006 RMK A01 T02990135  RH  037%=      5-min Rain = 0
KPA1 120044Z 15013KT 30/13 A3006 RMK A01 T02980134  RH  037%=      5-min Rain = 0
KPA1 120045Z 15012KT 30/13 A3006 RMK A01 T02980134  RH  037%=      5-min Rain = 0
KPA1 120046Z 15013KT 30/13 A3006 RMK A01 T02970134  RH  037%=      5-min Rain = 0
KPA1 120047Z 15012KT 30/13 A3006 RMK A01 T02980134  RH  037%=      5-min Rain = 0
KPA1 120048Z 15011KT 30/13 A3006 RMK A01 T02980134  RH  037%=      5-min Rain = 0
KPA1 120049Z 15011KT 30/14 A3006 RMK A01 T02970135  RH  037%=      5-min Rain = 0
KPA1 120050Z 15012KT 30/14 A3006 RMK A01 T02970135  RH  037%=      5-min Rain = 0
KPA1 120051Z 15011KT 30/14 A3006 RMK A01 T02960135  RH  037%=      5-min Rain = 0
KPA1 120052Z 14011KT 30/14 A3006 RMK A01 T02960135  RH  037%=      5-min Rain = 0
KPA1 120053Z 15012KT 30/14 A3006 RMK A01 T02950136  RH  038%=      5-min Rain = 0
KPA1 120054Z 16011KT 30/13 A3006 RMK A01 T02950134  RH  037%=      5-min Rain = 0
KPA1 120055Z 15013KT 30/13 A3006 RMK A01 T02950134  RH  037%=      5-min Rain = 0
KPA1 120056Z 15010KT 30/14 A3006 RMK A01 T02960135  RH  037%=      5-min Rain = 0
KPA1 120057Z 15012KT 30/14 A3006 RMK A01 T02950136  RH  038%=      5-min Rain = 0
KPA1 120058Z 15012KT 30/14 A3006 RMK A01 T02950135  RH  037%=      5-min Rain = 0
KPA1 120059Z 15012KT 30/14 A3006 RMK A01 T02950135  RH  037%=      5-min Rain = 0
KPA1 120100Z 15012KT 30/14 A3006 RMK A01 T02950135  RH  037%=      5-min Rain = 0
KPA1 120101Z 15011KT 30/14 A3007 RMK A01 T02950135  RH  038%=      5-min Rain = 0
KPA1 120102Z 15011KT 29/14 A3007 RMK A01 T02940135  RH  038%=      5-min Rain = 0
KPA1 120103Z 15010KT 29/14 A3007 RMK A01 T02930135  RH  038%=      5-min Rain = 0
KPA1 120104Z 16010KT 29/14 A3007 RMK A01 T02930135  RH  038%=      5-min Rain = 0
KPA1 120105Z 16011KT 29/14 A3007 RMK A01 T02930135  RH  038%=      5-min Rain = 0
KPA1 120106Z 17010KT 29/14 A3007 RMK A01 T02930135  RH  038%=      5-min Rain = 0
KPA1 120107Z 17012KT 29/13 A3007 RMK A01 T02930133  RH  037%=      5-min Rain = 0
KPA1 120108Z 16011KT 29/13 A3007 RMK A01 T02940132  RH  037%=      5-min Rain = 0
KPA1 120109Z 16011KT 30/13 A3007 RMK A01 T02960132  RH  037%=      5-min Rain = 0
KPA1 120110Z 15009KT 30/13 A3007 RMK A01 T02960132  RH  037%=      5-min Rain = 0
KPA1 120111Z 16010KT 30/13 A3007 RMK A01 T02960133  RH  037%=      5-min Rain = 0
KPA1 120112Z 17008KT 30/13 A3007 RMK A01 T02960134  RH  037%=      5-min Rain = 0
KPA1 120113Z 17011KT 30/14 A3007 RMK A01 T02950136  RH  038%=      5-min Rain = 0
KPA1 120114Z 16012KT 30/14 A3007 RMK A01 T02950137  RH  038%=      5-min Rain = 0
KPA1 120115Z 16014KT 30/14 A3007 RMK A01 T02950138  RH  038%=      5-min Rain = 0
KPA1 120116Z 17017KT 29/14 A3007 RMK A01 T02940138  RH  038%=      5-min Rain = 0
KPA1 120117Z 17017KT 29/14 A3007 RMK A01 T02930138  RH  039%=      5-min Rain = 0
KPA1 120118Z 17015KT 29/14 A3007 RMK A01 T02920139  RH  039%=      5-min Rain = 0
KPA1 120119Z 17017KT 29/14 A3007 RMK A01 T02910138  RH  039%=      5-min Rain = 0
KPA1 120120Z 17015KT 29/14 A3007 RMK A01 T02900139  RH  040%=      5-min Rain = 0
KPA1 120121Z 17017KT 29/14 A3007 RMK A01 T02890138  RH  040%=      5-min Rain = 0
KPA1 120122Z 17015KT 29/14 A3007 RMK A01 T02880138  RH  040%=      5-min Rain = 0
KPA1 120123Z 18017G23KT 29/14 A3007 RMK A01 T02870138  RH  040%=      5-min Rain = 0
KPA1 120124Z 18019KT 29/14 A3007 RMK A01 T02860138  RH  040%=      5-min Rain = 0
KPA1 120125Z 18018KT 28/14 A3007 RMK A01 T02840138  RH  041%=      5-min Rain = 0
KPA1 120126Z 18017KT 28/14 A3007 RMK A01 T02830138  RH  041%=      5-min Rain = 0
KPA1 120127Z 18017KT 28/14 A3007 RMK A01 T02830137  RH  041%=      5-min Rain = 0
KPA1 120128Z 18015KT 28/14 A3007 RMK A01 T02830137  RH  041%=      5-min Rain = 0
KPA1 120129Z 18016KT 28/14 A3007 RMK A01 T02840137  RH  041%=      5-min Rain = 0
KPA1 120130Z 18016KT 28/14 A3007 RMK A01 T02840137  RH  040%=      5-min Rain = 0
KPA1 120131Z 18015KT 28/14 A3007 RMK A01 T02840137  RH  040%=      5-min Rain = 0
KPA1 120132Z 18014KT 28/14 A3007 RMK A01 T02840137  RH  040%=      5-min Rain = 0
KPA1 120133Z 18015KT 28/14 A3007 RMK A01 T02840137  RH  040%=      5-min Rain = 0
KPA1 120134Z 19014KT 29/14 A3007 RMK A01 T02850136  RH  040%=      5-min Rain = 0
KPA1 120135Z 18015KT 29/14 A3007 RMK A01 T02850137  RH  040%=      5-min Rain = 0
KPA1 120136Z 19014KT 29/14 A3007 RMK A01 T02850137  RH  040%=      5-min Rain = 0
KPA1 120137Z 19013KT 29/14 A3007 RMK A01 T02850137  RH  040%=      5-min Rain = 0
KPA1 120138Z 18014KT 29/14 A3007 RMK A01 T02860138  RH  040%=      5-min Rain = 0
KPA1 120139Z 19013KT 29/14 A3007 RMK A01 T02860137  RH  040%=      5-min Rain = 0
KPA1 120140Z 18010KT 29/14 A3007 RMK A01 T02860138  RH  040%=      5-min Rain = 0
KPA1 120141Z 19011KT 29/14 A3007 RMK A01 T02860138  RH  040%=      5-min Rain = 0
KPA1 120142Z 19012KT 29/14 A3007 RMK A01 T02860139  RH  040%=      5-min Rain = 0
KPA1 120143Z 18011KT 29/14 A3007 RMK A01 T02860138  RH  040%=      5-min Rain = 0
KPA1 120144Z 18011KT 29/14 A3007 RMK A01 T02870138  RH  040%=      5-min Rain = 0
KPA1 120145Z 18010KT 29/14 A3007 RMK A01 T02870138  RH  040%=      5-min Rain = 0
KPA1 120146Z 18009KT 29/14 A3007 RMK A01 T02870138  RH  040%=      5-min Rain = 0
KPA1 120147Z 18009KT 29/14 A3007 RMK A01 T02870138  RH  040%=      5-min Rain = 0
KPA1 120148Z 18008KT 29/14 A3007 RMK A01 T02870138  RH  040%=      5-min Rain = 0
KPA1 120149Z 17008KT 29/14 A3007 RMK A01 T02860138  RH  040%=      5-min Rain = 0
KPA1 120150Z 17008KT 29/14 A3007 RMK A01 T02860138  RH  040%=      5-min Rain = 0
KPA1 120151Z 16009KT 29/14 A3007 RMK A01 T02860138  RH  040%=      5-min Rain = 0
KPA1 120152Z 16009KT 29/14 A3007 RMK A01 T02850137  RH  040%=      5-min Rain = 0
KPA1 120153Z 15007KT 29/14 A3007 RMK A01 T02860137  RH  040%=      5-min Rain = 0
KPA1 120154Z 15008KT 29/14 A3007 RMK A01 T02850139  RH  041%=      5-min Rain = 0
KPA1 120155Z 15007KT 28/14 A3007 RMK A01 T02840139  RH  041%=      5-min Rain = 0
KPA1 120156Z 15008KT 28/14 A3007 RMK A01 T02830139  RH  041%=      5-min Rain = 0
KPA1 120157Z 15008KT 28/14 A3007 RMK A01 T02820138  RH  041%=      5-min Rain = 0
KPA1 120158Z 15007KT 28/14 A3007 RMK A01 T02820138  RH  041%=      5-min Rain = 0
KPA1 120159Z 14008KT 28/14 A3007 RMK A01 T02820137  RH  041%=      5-min Rain = 0
KPA1 120200Z 14008KT 28/14 A3007 RMK A01 T02810137  RH  041%=      5-min Rain = 0
KPA1 120201Z 15009KT 28/14 A3007 RMK A01 T02800137  RH  042%=      5-min Rain = 0
KPA1 120202Z 15009KT 28/14 A3007 RMK A01 T02790137  RH  042%=      5-min Rain = 0
KPA1 120203Z 15008KT 28/14 A3007 RMK A01 T02790137  RH  042%=      5-min Rain = 0
KPA1 120204Z 14008KT 28/14 A3007 RMK A01 T02790136  RH  042%=      5-min Rain = 0
KPA1 120205Z 15008KT 28/14 A3007 RMK A01 T02790137  RH  042%=      5-min Rain = 0
KPA1 120206Z 14009KT 28/14 A3007 RMK A01 T02780138  RH  042%=      5-min Rain = 0
KPA1 120207Z 14009KT 28/14 A3007 RMK A01 T02770138  RH  043%=      5-min Rain = 0
KPA1 120208Z 14009KT 28/14 A3007 RMK A01 T02760138  RH  043%=      5-min Rain = 0
KPA1 120209Z 14008KT 28/14 A3007 RMK A01 T02760136  RH  042%=      5-min Rain = 0
KPA1 120210Z 15008KT 28/14 A3007 RMK A01 T02770136  RH  042%=      5-min Rain = 0
KPA1 120211Z 14008KT 28/14 A3007 RMK A01 T02770136  RH  042%=      5-min Rain = 0
KPA1 120212Z 14008KT 28/14 A3007 RMK A01 T02770136  RH  042%=      5-min Rain = 0
KPA1 120213Z 14009KT 28/14 A3007 RMK A01 T02760136  RH  042%=      5-min Rain = 0
KPA1 120214Z 14009KT 28/14 A3007 RMK A01 T02760135  RH  042%=      5-min Rain = 0
KPA1 120215Z 14009KT 28/13 A3007 RMK A01 T02760134  RH  042%=      5-min Rain = 0
KPA1 120216Z 14009KT 28/13 A3008 RMK A01 T02760134  RH  041%=      5-min Rain = 0
KPA1 120217Z 14008KT 28/13 A3008 RMK A01 T02760134  RH  042%=      5-min Rain = 0
KPA1 120218Z 14009KT 28/13 A3008 RMK A01 T02760134  RH  042%=      5-min Rain = 0
KPA1 120219Z 14009KT 28/13 A3008 RMK A01 T02760132  RH  041%=      5-min Rain = 0
KPA1 120220Z 13008KT 28/13 A3008 RMK A01 T02770132  RH  041%=      5-min Rain = 0
KPA1 120221Z 14008KT 28/13 A3008 RMK A01 T02780132  RH  041%=      5-min Rain = 0
KPA1 120222Z 14009KT 28/13 A3008 RMK A01 T02770132  RH  041%=      5-min Rain = 0
KPA1 120223Z 13008KT 28/13 A3008 RMK A01 T02770132  RH  041%=      5-min Rain = 0
KPA1 120224Z 13009KT 28/13 A3008 RMK A01 T02770132  RH  041%=      5-min Rain = 0
KPA1 120225Z 13009KT 28/13 A3008 RMK A01 T02780133  RH  041%=      5-min Rain = 0
KPA1 120226Z 13008KT 28/13 A3008 RMK A01 T02770132  RH  041%=      5-min Rain = 0
KPA1 120227Z 14009KT 28/13 A3008 RMK A01 T02760132  RH  041%=      5-min Rain = 0
KPA1 120228Z 13008KT 28/13 A3008 RMK A01 T02760133  RH  041%=      5-min Rain = 0
KPA1 120229Z 14008KT 28/13 A3008 RMK A01 T02760132  RH  041%=      5-min Rain = 0
KPA1 120230Z 13009KT 28/13 A3008 RMK A01 T02750132  RH  041%=      5-min Rain = 0
KPA1 120231Z 13008KT 28/13 A3008 RMK A01 T02750132  RH  041%=      5-min Rain = 0
KPA1 120232Z 13008KT 28/13 A3008 RMK A01 T02750132  RH  041%=      5-min Rain = 0
KPA1 120233Z 13008KT 27/13 A3008 RMK A01 T02740132  RH  041%=      5-min Rain = 0
KPA1 120234Z 13008KT 27/13 A3008 RMK A01 T02740132  RH  042%=      5-min Rain = 0
KPA1 120235Z 13009KT 27/13 A3009 RMK A01 T02740133  RH  042%=      5-min Rain = 0
KPA1 120236Z 13009KT 27/13 A3009 RMK A01 T02730133  RH  042%=      5-min Rain = 0
KPA1 120237Z 13009KT 27/13 A3009 RMK A01 T02730132  RH  042%=      5-min Rain = 0
KPA1 120238Z 13009KT 27/13 A3009 RMK A01 T02720132  RH  042%=      5-min Rain = 0
KPA1 120239Z 13010KT 27/13 A3009 RMK A01 T02720132  RH  042%=      5-min Rain = 0
KPA1 120240Z 13009KT 27/13 A3009 RMK A01 T02720133  RH  042%=      5-min Rain = 0
KPA1 120241Z 13010KT 27/13 A3009 RMK A01 T02710133  RH  042%=      5-min Rain = 0
KPA1 120242Z 13010KT 27/13 A3009 RMK A01 T02710133  RH  043%=      5-min Rain = 0
KPA1 120243Z 13010KT 27/13 A3009 RMK A01 T02710134  RH  043%=      5-min Rain = 0
KPA1 120244Z 13010KT 27/13 A3009 RMK A01 T02710134  RH  043%=      5-min Rain = 0
KPA1 120245Z 14010KT 27/13 A3009 RMK A01 T02710134  RH  043%=      5-min Rain = 0
KPA1 120246Z 13009KT 27/13 A3009 RMK A01 T02710134  RH  043%=      5-min Rain = 0
KPA1 120247Z 14010KT 27/13 A3009 RMK A01 T02700134  RH  043%=      5-min Rain = 0
KPA1 120248Z 14009KT 27/13 A3009 RMK A01 T02700134  RH  043%=      5-min Rain = 0
KPA1 120249Z 14009KT 27/13 A3009 RMK A01 T02690134  RH  043%=      5-min Rain = 0
KPA1 120250Z 14009KT 27/13 A3009 RMK A01 T02680134  RH  044%=      5-min Rain = 0
KPA1 120251Z 13009KT 27/14 A3009 RMK A01 T02670135  RH  044%=      5-min Rain = 0
KPA1 120252Z 13008KT 27/14 A3009 RMK A01 T02670135  RH  044%=      5-min Rain = 0
KPA1 120253Z 14009KT 27/14 A3009 RMK A01 T02660135  RH  044%=      5-min Rain = 0
KPA1 120254Z 13009KT 27/14 A3009 RMK A01 T02650135  RH  045%=      5-min Rain = 0
KPA1 120255Z 13009KT 27/14 A3009 RMK A01 T02650135  RH  045%=      5-min Rain = 0
KPA1 120256Z 13009KT 27/14 A3009 RMK A01 T02650135  RH  045%=      5-min Rain = 0
KPA1 120257Z 13009KT 27/14 A301 RMK A01 T02650135  RH  045%=      5-min Rain = 0
KPA1 120258Z 13010KT 26/14 A301 RMK A01 T02640135  RH  045%=      5-min Rain = 0
KPA1 120259Z 13010KT 26/14 A301 RMK A01 T02640135  RH  045%=      5-min Rain = 0
KPA1 120300Z 13010KT 26/13 A301 RMK A01 T02640134  RH  045%=      5-min Rain = 0
KPA1 120301Z 13010KT 26/13 A301 RMK A01 T02640134  RH  045%=      5-min Rain = 0
KPA1 120302Z 13009KT 26/13 A301 RMK A01 T02640134  RH  045%=      5-min Rain = 0
KPA1 120303Z 13009KT 26/13 A301 RMK A01 T02640134  RH  045%=      5-min Rain = 0
KPA1 120304Z 13010KT 26/14 A301 RMK A01 T02640135  RH  045%=      5-min Rain = 0
KPA1 120305Z 13009KT 26/13 A301 RMK A01 T02640134  RH  045%=      5-min Rain = 0
KPA1 120306Z 13009KT 26/13 A301 RMK A01 T02640134  RH  045%=      5-min Rain = 0
KPA1 120307Z 13009KT 26/13 A301 RMK A01 T02640134  RH  045%=      5-min Rain = 0
KPA1 120308Z 14010KT 26/14 A301 RMK A01 T02630135  RH  045%=      5-min Rain = 0
KPA1 120309Z 14010KT 26/14 A301 RMK A01 T02630135  RH  045%=      5-min Rain = 0
KPA1 120310Z 14010KT 26/13 A301 RMK A01 T02630134  RH  045%=      5-min Rain = 0
KPA1 120311Z 13010KT 26/13 A301 RMK A01 T02630134  RH  045%=      5-min Rain = 0
KPA1 120312Z 13010KT 26/13 A301 RMK A01 T02630134  RH  045%=      5-min Rain = 0
KPA1 120313Z 13010KT 26/14 A301 RMK A01 T02630135  RH  045%=      5-min Rain = 0
KPA1 120314Z 13011KT 26/14 A301 RMK A01 T02630135  RH  045%=      5-min Rain = 0
KPA1 120315Z 13010KT 26/14 A301 RMK A01 T02630135  RH  045%=      5-min Rain = 0
KPA1 120316Z 13011KT 26/14 A301 RMK A01 T02630135  RH  045%=      5-min Rain = 0
KPA1 120317Z 14011KT 26/14 A301 RMK A01 T02630135  RH  045%=      5-min Rain = 0
KPA1 120318Z 13011KT 26/14 A301 RMK A01 T02630135  RH  045%=      5-min Rain = 0
KPA1 120319Z 13011KT 26/14 A301 RMK A01 T02640135  RH  045%=      5-min Rain = 0
KPA1 120320Z 13011KT 26/14 A3011 RMK A01 T02640135  RH  045%=      5-min Rain = 0
KPA1 120321Z 13011KT 26/14 A3011 RMK A01 T02640135  RH  045%=      5-min Rain = 0
KPA1 120322Z 13012KT 26/14 A3011 RMK A01 T02640136  RH  045%=      5-min Rain = 0
KPA1 120323Z 13011KT 26/14 A3011 RMK A01 T02640136  RH  045%=      5-min Rain = 0
KPA1 120324Z 13012KT 26/14 A3011 RMK A01 T02630136  RH  045%=      5-min Rain = 0
KPA1 120325Z 13012KT 26/14 A3011 RMK A01 T02630136  RH  045%=      5-min Rain = 0
KPA1 120326Z 13011KT 26/14 A3011 RMK A01 T02630136  RH  045%=      5-min Rain = 0
KPA1 120327Z 13011KT 26/14 A3011 RMK A01 T02630136  RH  046%=      5-min Rain = 0
KPA1 120328Z 13011KT 26/14 A3011 RMK A01 T02630136  RH  046%=      5-min Rain = 0
KPA1 120329Z 13011KT 26/14 A3011 RMK A01 T02630136  RH  046%=      5-min Rain = 0
KPA1 120330Z 13011KT 26/14 A3011 RMK A01 T02630136  RH  046%=      5-min Rain = 0
KPA1 120331Z 13011KT 26/14 A3011 RMK A01 T02630136  RH  046%=      5-min Rain = 0
KPA1 120332Z 13012KT 26/14 A3011 RMK A01 T02630136  RH  046%=      5-min Rain = 0
KPA1 120333Z 13012KT 26/14 A3011 RMK A01 T02630136  RH  046%=      5-min Rain = 0
KPA1 120334Z 13011KT 26/14 A3011 RMK A01 T02630136  RH  046%=      5-min Rain = 0
KPA1 120335Z 13011KT 26/14 A3011 RMK A01 T02630136  RH  046%=      5-min Rain = 0
KPA1 120336Z 13011KT 26/14 A3011 RMK A01 T02620136  RH  046%=      5-min Rain = 0
KPA1 120337Z 13011KT 26/14 A3011 RMK A01 T02620136  RH  046%=      5-min Rain = 0
KPA1 120338Z 13011KT 26/14 A3011 RMK A01 T02610136  RH  046%=      5-min Rain = 0
KPA1 120339Z 13011KT 26/14 A3011 RMK A01 T02600136  RH  046%=      5-min Rain = 0
KPA1 120340Z 13011KT 26/14 A3011 RMK A01 T02600137  RH  047%=      5-min Rain = 0
KPA1 120341Z 13011KT 26/14 A3011 RMK A01 T02590137  RH  047%=      5-min Rain = 0
KPA1 120342Z 13012KT 26/14 A3011 RMK A01 T02590137  RH  047%=      5-min Rain = 0
KPA1 120343Z 13011KT 26/14 A3011 RMK A01 T02590137  RH  047%=      5-min Rain = 0
KPA1 120344Z 13011KT 26/14 A3011 RMK A01 T02580137  RH  047%=      5-min Rain = 0
KPA1 120345Z 13011KT 26/14 A3011 RMK A01 T02590137  RH  047%=      5-min Rain = 0
KPA1 120346Z 13011KT 26/14 A3011 RMK A01 T02590137  RH  047%=      5-min Rain = 0
KPA1 120347Z 13011KT 26/14 A3011 RMK A01 T02590137  RH  047%=      5-min Rain = 0
KPA1 120348Z 13011KT 26/14 A3011 RMK A01 T02590137  RH  047%=      5-min Rain = 0
KPA1 120349Z 13012KT 26/14 A3011 RMK A01 T02580137  RH  047%=      5-min Rain = 0
KPA1 120350Z 13012KT 26/14 A3011 RMK A01 T02590137  RH  047%=      5-min Rain = 0
KPA1 120351Z 13012KT 26/14 A3011 RMK A01 T02590137  RH  047%=      5-min Rain = 0
KPA1 120352Z 13012KT 26/14 A3011 RMK A01 T02590137  RH  047%=      5-min Rain = 0
KPA1 120353Z 13011KT 26/14 A3011 RMK A01 T02590137  RH  047%=      5-min Rain = 0
KPA1 120354Z 13011KT 26/14 A3011 RMK A01 T02590137  RH  047%=      5-min Rain = 0
KPA1 120355Z 13012KT 26/14 A3011 RMK A01 T02590137  RH  047%=      5-min Rain = 0
KPA1 120356Z 13012KT 26/14 A3011 RMK A01 T02590137  RH  047%=      5-min Rain = 0
KPA1 120357Z 13011KT 26/14 A3011 RMK A01 T02590137  RH  047%=      5-min Rain = 0
KPA1 120358Z 13011KT 26/14 A3011 RMK A01 T02590137  RH  047%=      5-min Rain = 0
KPA1 120359Z 13011KT 26/14 A3011 RMK A01 T02580137  RH  047%=      5-min Rain = 0
KPA1 120400Z 13012KT 26/14 A3011 RMK A01 T02580137  RH  047%=      5-min Rain = 0
KPA1 120401Z 13011KT 26/14 A3011 RMK A01 T02580138  RH  047%=      5-min Rain = 0
KPA1 120402Z 13010KT 26/14 A3011 RMK A01 T02580137  RH  047%=      5-min Rain = 0
KPA1 120403Z 13011KT 26/14 A3011 RMK A01 T02580138  RH  047%=      5-min Rain = 0
KPA1 120404Z 13011KT 26/14 A3011 RMK A01 T02570137  RH  047%=      5-min Rain = 0
KPA1 120405Z 13011KT 26/14 A3011 RMK A01 T02570138  RH  047%=      5-min Rain = 0
KPA1 120406Z 13011KT 26/14 A3011 RMK A01 T02570138  RH  047%=      5-min Rain = 0
KPA1 120407Z 13011KT 26/14 A3011 RMK A01 T02570138  RH  048%=      5-min Rain = 0
KPA1 120408Z 13010KT 26/14 A3011 RMK A01 T02580138  RH  047%=      5-min Rain = 0
KPA1 120409Z 13011KT 26/14 A3011 RMK A01 T02580138  RH  048%=      5-min Rain = 0
KPA1 120410Z 13011KT 26/14 A3012 RMK A01 T02570138  RH  048%=      5-min Rain = 0
KPA1 120411Z 13011KT 26/14 A3012 RMK A01 T02570138  RH  048%=      5-min Rain = 0
KPA1 120412Z 13011KT 26/14 A3011 RMK A01 T02570138  RH  048%=      5-min Rain = 0
KPA1 120413Z 13011KT 26/14 A3011 RMK A01 T02570138  RH  048%=      5-min Rain = 0
KPA1 120414Z 13010KT 26/14 A3011 RMK A01 T02570138  RH  048%=      5-min Rain = 0
KPA1 120415Z 13010KT 26/14 A3011 RMK A01 T02570138  RH  048%=      5-min Rain = 0
KPA1 120416Z 13010KT 26/14 A3012 RMK A01 T02560138  RH  048%=      5-min Rain = 0
KPA1 120417Z 13010KT 26/14 A3012 RMK A01 T02560138  RH  048%=      5-min Rain = 0
KPA1 120418Z 13010KT 26/14 A3012 RMK A01 T02560139  RH  048%=      5-min Rain = 0
KPA1 120419Z 13010KT 26/14 A3012 RMK A01 T02550139  RH  048%=      5-min Rain = 0
KPA1 120420Z 13010KT 26/14 A3012 RMK A01 T02560139  RH  048%=      5-min Rain = 0
KPA1 120421Z 13010KT 26/14 A3012 RMK A01 T02550139  RH  049%=      5-min Rain = 0
KPA1 120422Z 13010KT 26/14 A3012 RMK A01 T02550139  RH  049%=      5-min Rain = 0
KPA1 120423Z 13010KT 26/14 A3012 RMK A01 T02550139  RH  049%=      5-min Rain = 0
KPA1 120424Z 13010KT 25/14 A3012 RMK A01 T02540139  RH  049%=      5-min Rain = 0
KPA1 120425Z 13010KT 25/14 A3012 RMK A01 T02540139  RH  049%=      5-min Rain = 0
KPA1 120426Z 13010KT 25/14 A3012 RMK A01 T02540139  RH  049%=      5-min Rain = 0
KPA1 120427Z 13010KT 25/14 A3012 RMK A01 T02540139  RH  049%=      5-min Rain = 0
KPA1 120428Z 13010KT 25/14 A3012 RMK A01 T02540139  RH  049%=      5-min Rain = 0
KPA1 120429Z 13010KT 25/14 A3012 RMK A01 T02530139  RH  049%=      5-min Rain = 0
KPA1 120430Z 13009KT 25/14 A3012 RMK A01 T02530139  RH  049%=      5-min Rain = 0
KPA1 120431Z 13010KT 25/14 A3012 RMK A01 T02530139  RH  049%=      5-min Rain = 0
KPA1 120432Z 13009KT 25/14 A3012 RMK A01 T02520139  RH  049%=      5-min Rain = 0
KPA1 120433Z 13010KT 25/14 A3012 RMK A01 T02520139  RH  050%=      5-min Rain = 0
KPA1 120434Z 13010KT 25/14 A3012 RMK A01 T02520139  RH  050%=      5-min Rain = 0
KPA1 120435Z 13009KT 25/14 A3012 RMK A01 T02510139  RH  050%=      5-min Rain = 0
KPA1 120436Z 13009KT 25/14 A3012 RMK A01 T02510139  RH  050%=      5-min Rain = 0
KPA1 120437Z 13009KT 25/14 A3012 RMK A01 T02500139  RH  050%=      5-min Rain = 0
KPA1 120438Z 13009KT 25/14 A3012 RMK A01 T02500139  RH  050%=      5-min Rain = 0
KPA1 120439Z 13009KT 25/14 A3012 RMK A01 T02490139  RH  050%=      5-min Rain = 0
KPA1 120440Z 13009KT 25/14 A3012 RMK A01 T02490139  RH  050%=      5-min Rain = 0
KPA1 120441Z 12009KT 25/14 A3012 RMK A01 T02490139  RH  050%=      5-min Rain = 0
KPA1 120442Z 13009KT 25/14 A3012 RMK A01 T02480139  RH  050%=      5-min Rain = 0
KPA1 120443Z 13009KT 25/14 A3012 RMK A01 T02480139  RH  051%=      5-min Rain = 0
KPA1 120444Z 13009KT 25/14 A3012 RMK A01 T02480139  RH  051%=      5-min Rain = 0
KPA1 120445Z 12010KT 25/14 A3012 RMK A01 T02480139  RH  051%=      5-min Rain = 0
KPA1 120446Z 13008KT 25/14 A3012 RMK A01 T02480139  RH  051%=      5-min Rain = 0
KPA1 120447Z 13009KT 25/14 A3012 RMK A01 T02480139  RH  051%=      5-min Rain = 0
KPA1 120448Z 13009KT 25/14 A3012 RMK A01 T02480139  RH  051%=      5-min Rain = 0
KPA1 120449Z 13010KT 25/14 A3012 RMK A01 T02480139  RH  051%=      5-min Rain = 0
KPA1 120450Z 13009KT 25/14 A3012 RMK A01 T02480139  RH  051%=      5-min Rain = 0
KPA1 120451Z 13009KT 25/14 A3012 RMK A01 T02480139  RH  051%=      5-min Rain = 0
KPA1 120452Z 13009KT 25/14 A3012 RMK A01 T02480139  RH  051%=      5-min Rain = 0
KPA1 120453Z 13009KT 25/14 A3012 RMK A01 T02480139  RH  051%=      5-min Rain = 0
KPA1 120454Z 13009KT 25/14 A3012 RMK A01 T02480139  RH  051%=      5-min Rain = 0
KPA1 120455Z 13009KT 25/14 A3012 RMK A01 T02470139  RH  051%=      5-min Rain = 0
KPA1 120456Z 13009KT 25/14 A3012 RMK A01 T02470139  RH  051%=      5-min Rain = 0
KPA1 120457Z 12009KT 25/14 A3012 RMK A01 T02470139  RH  051%=      5-min Rain = 0
KPA1 120458Z 13009KT 25/14 A3012 RMK A01 T02470139  RH  051%=      5-min Rain = 0
KPA1 120459Z 12009KT 25/14 A3012 RMK A01 T02460139  RH  051%=      5-min Rain = 0
KPA1 120500Z 13010KT 25/14 A3012 RMK A01 T02460139  RH  051%=      5-min Rain = 0

Page generated in 0.043 seconds.